Observation data for Umbarger on 07/11/2018      Previous  Date       Current Mesonet Observations  Soil Data  Daily Summary Page  Observations in Plain Language
KUM1 110501Z 16009KT 23/16 A3017 RMK A01 T02290161  RH  065%=      5-min Rain = 0
KUM1 110502Z 16009KT 23/16 A3017 RMK A01 T02300161  RH  065%=      5-min Rain = 0
KUM1 110503Z 16009KT 23/16 A3017 RMK A01 T02300161  RH  065%=      5-min Rain = 0
KUM1 110504Z 16009KT 23/16 A3017 RMK A01 T02290161  RH  065%=      5-min Rain = 0
KUM1 110505Z 16009KT 23/16 A3017 RMK A01 T02290161  RH  066%=      5-min Rain = 0
KUM1 110506Z 16009KT 23/16 A3017 RMK A01 T02290161  RH  066%=      5-min Rain = 0
KUM1 110507Z 16009KT 23/16 A3017 RMK A01 T02280161  RH  066%=      5-min Rain = 0
KUM1 110508Z 16008KT 23/16 A3017 RMK A01 T02280161  RH  066%=      5-min Rain = 0
KUM1 110509Z 16009KT 23/16 A3017 RMK A01 T02270162  RH  066%=      5-min Rain = 0
KUM1 110510Z 16009KT 23/16 A3017 RMK A01 T02260162  RH  067%=      5-min Rain = 0
KUM1 110511Z 16008KT 23/16 A3017 RMK A01 T02260162  RH  067%=      5-min Rain = 0
KUM1 110512Z 15008KT 23/16 A3017 RMK A01 T02260162  RH  067%=      5-min Rain = 0
KUM1 110513Z 16009KT 23/16 A3017 RMK A01 T02250162  RH  067%=      5-min Rain = 0
KUM1 110514Z 16008KT 23/16 A3017 RMK A01 T02260163  RH  068%=      5-min Rain = 0
KUM1 110515Z 15008KT 23/16 A3017 RMK A01 T02250163  RH  068%=      5-min Rain = 0
KUM1 110516Z 15007KT 23/16 A3017 RMK A01 T02250164  RH  068%=      5-min Rain = 0
KUM1 110517Z 15007KT 22/16 A3017 RMK A01 T02240164  RH  069%=      5-min Rain = 0
KUM1 110518Z 14007KT 22/16 A3017 RMK A01 T02230164  RH  069%=      5-min Rain = 0
KUM1 110519Z 14007KT 22/16 A3018 RMK A01 T02210163  RH  070%=      5-min Rain = 0
KUM1 110520Z 14006KT 22/16 A3018 RMK A01 T02200164  RH  071%=      5-min Rain = 0
KUM1 110521Z 14006KT 22/16 A3018 RMK A01 T02180163  RH  071%=      5-min Rain = 0
KUM1 110522Z 14006KT 22/16 A3018 RMK A01 T02170164  RH  072%=      5-min Rain = 0
KUM1 110523Z 14006KT 22/16 A3018 RMK A01 T02160164  RH  072%=      5-min Rain = 0
KUM1 110524Z 14006KT 22/17 A3018 RMK A01 T02160165  RH  073%=      5-min Rain = 0
KUM1 110525Z 14006KT 22/17 A3018 RMK A01 T02150165  RH  073%=      5-min Rain = 0
KUM1 110526Z 14006KT 22/17 A3018 RMK A01 T02150166  RH  073%=      5-min Rain = 0
KUM1 110527Z 14006KT 22/17 A3018 RMK A01 T02150165  RH  073%=      5-min Rain = 0
KUM1 110528Z 14006KT 21/17 A3018 RMK A01 T02140166  RH  074%=      5-min Rain = 0
KUM1 110529Z 15005KT 21/17 A3018 RMK A01 T02140166  RH  074%=      5-min Rain = 0
KUM1 110530Z 15005KT 21/17 A3018 RMK A01 T02140166  RH  074%=      5-min Rain = 0
KUM1 110531Z 15005KT 21/17 A3018 RMK A01 T02130166  RH  074%=      5-min Rain = 0
KUM1 110532Z 16005KT 21/17 A3018 RMK A01 T02130166  RH  074%=      5-min Rain = 0
KUM1 110533Z 16006KT 21/17 A3018 RMK A01 T02130166  RH  074%=      5-min Rain = 0
KUM1 110534Z 16006KT 21/17 A3018 RMK A01 T02130166  RH  075%=      5-min Rain = 0
KUM1 110535Z 16006KT 21/17 A3018 RMK A01 T02130166  RH  075%=      5-min Rain = 0
KUM1 110536Z 17006KT 21/17 A3018 RMK A01 T02120166  RH  075%=      5-min Rain = 0
KUM1 110537Z 17005KT 21/17 A3018 RMK A01 T02120166  RH  075%=      5-min Rain = 0
KUM1 110538Z 17006KT 21/17 A3018 RMK A01 T02120166  RH  075%=      5-min Rain = 0
KUM1 110539Z 17006KT 21/17 A3018 RMK A01 T02110166  RH  075%=      5-min Rain = 0
KUM1 110540Z 17006KT 21/17 A3018 RMK A01 T02110166  RH  075%=      5-min Rain = 0
KUM1 110541Z 17007KT 21/17 A3018 RMK A01 T02110166  RH  075%=      5-min Rain = 0
KUM1 110542Z 17007KT 21/17 A3018 RMK A01 T02120166  RH  075%=      5-min Rain = 0
KUM1 110543Z 16007KT 21/17 A3018 RMK A01 T02120166  RH  075%=      5-min Rain = 0
KUM1 110544Z 16007KT 21/17 A3018 RMK A01 T02130166  RH  075%=      5-min Rain = 0
KUM1 110545Z 16007KT 21/17 A3018 RMK A01 T02130166  RH  075%=      5-min Rain = 0
KUM1 110546Z 16006KT 21/17 A3018 RMK A01 T02130166  RH  075%=      5-min Rain = 0
KUM1 110547Z 16006KT 21/17 A3018 RMK A01 T02130166  RH  075%=      5-min Rain = 0
KUM1 110548Z 17006KT 21/17 A3018 RMK A01 T02120166  RH  075%=      5-min Rain = 0
KUM1 110549Z 17006KT 21/17 A3018 RMK A01 T02110167  RH  075%=      5-min Rain = 0
KUM1 110550Z 17006KT 21/17 A3018 RMK A01 T02120167  RH  076%=      5-min Rain = 0
KUM1 110551Z 17006KT 21/17 A3018 RMK A01 T02110167  RH  076%=      5-min Rain = 0
KUM1 110552Z 17007KT 21/17 A3018 RMK A01 T02110167  RH  076%=      5-min Rain = 0
KUM1 110553Z 17007KT 21/17 A3018 RMK A01 T02110166  RH  075%=      5-min Rain = 0
KUM1 110554Z 17007KT 21/17 A3018 RMK A01 T02120166  RH  075%=      5-min Rain = 0
KUM1 110555Z 17008KT 21/17 A3018 RMK A01 T02130166  RH  074%=      5-min Rain = 0
KUM1 110556Z 17008KT 21/17 A3018 RMK A01 T02140165  RH  074%=      5-min Rain = 0
KUM1 110557Z 17008KT 21/17 A3018 RMK A01 T02140165  RH  073%=      5-min Rain = 0
KUM1 110558Z 17009KT 22/17 A3018 RMK A01 T02150165  RH  073%=      5-min Rain = 0
KUM1 110559Z 17009KT 22/17 A3018 RMK A01 T02160165  RH  073%=      5-min Rain = 0
KUM1 110600Z 17009KT 22/17 A3018 RMK A01 T02160165  RH  073%=      5-min Rain = 0
KUM1 110601Z 17009KT 22/17 A3018 RMK A01 T02160165  RH  073%=      5-min Rain = 0
KUM1 110602Z 17010KT 22/17 A3018 RMK A01 T02160165  RH  072%=      5-min Rain = 0
KUM1 110603Z 18010KT 22/16 A3018 RMK A01 T02170164  RH  072%=      5-min Rain = 0
KUM1 110604Z 17010KT 22/17 A3018 RMK A01 T02180165  RH  072%=      5-min Rain = 0
KUM1 110605Z 18009KT 22/16 A3018 RMK A01 T02190164  RH  071%=      5-min Rain = 0
KUM1 110606Z 17010KT 22/16 A3018 RMK A01 T02200164  RH  071%=      5-min Rain = 0
KUM1 110607Z 18010KT 22/16 A3018 RMK A01 T02200164  RH  070%=      5-min Rain = 0
KUM1 110608Z 18010KT 22/16 A3018 RMK A01 T02200164  RH  070%=      5-min Rain = 0
KUM1 110609Z 18009KT 22/16 A3018 RMK A01 T02210164  RH  070%=      5-min Rain = 0
KUM1 110610Z 18009KT 22/16 A3018 RMK A01 T02210164  RH  070%=      5-min Rain = 0
KUM1 110611Z 18009KT 22/16 A3018 RMK A01 T02210164  RH  070%=      5-min Rain = 0
KUM1 110612Z 18009KT 22/16 A3018 RMK A01 T02210164  RH  070%=      5-min Rain = 0
KUM1 110613Z 18009KT 22/16 A3018 RMK A01 T02210163  RH  070%=      5-min Rain = 0
KUM1 110614Z 18009KT 22/16 A3018 RMK A01 T02210164  RH  070%=      5-min Rain = 0
KUM1 110615Z 18009KT 22/16 A3018 RMK A01 T02210164  RH  070%=      5-min Rain = 0
KUM1 110616Z 18010KT 22/16 A3018 RMK A01 T02200164  RH  070%=      5-min Rain = 0
KUM1 110617Z 18010KT 22/16 A3018 RMK A01 T02200163  RH  070%=      5-min Rain = 0
KUM1 110618Z 18009KT 22/16 A3018 RMK A01 T02200163  RH  070%=      5-min Rain = 0
KUM1 110619Z 18010KT 22/16 A3018 RMK A01 T02200164  RH  070%=      5-min Rain = 0
KUM1 110620Z 18009KT 22/16 A3018 RMK A01 T02200164  RH  070%=      5-min Rain = 0
KUM1 110621Z 18009KT 22/16 A3018 RMK A01 T02200164  RH  070%=      5-min Rain = 0
KUM1 110622Z 17009KT 22/16 A3018 RMK A01 T02200164  RH  071%=      5-min Rain = 0
KUM1 110623Z 17009KT 22/16 A3018 RMK A01 T02190164  RH  071%=      5-min Rain = 0
KUM1 110624Z 17009KT 22/16 A3018 RMK A01 T02190164  RH  071%=      5-min Rain = 0
KUM1 110625Z 17009KT 22/16 A3018 RMK A01 T02190164  RH  071%=      5-min Rain = 0
KUM1 110626Z 17009KT 22/16 A3018 RMK A01 T02180164  RH  071%=      5-min Rain = 0
KUM1 110627Z 17009KT 22/16 A3018 RMK A01 T02170164  RH  072%=      5-min Rain = 0
KUM1 110628Z 17008KT 22/16 A3018 RMK A01 T02170164  RH  072%=      5-min Rain = 0
KUM1 110629Z 17008KT 22/16 A3018 RMK A01 T02170164  RH  072%=      5-min Rain = 0
KUM1 110630Z 17008KT 22/16 A3018 RMK A01 T02160164  RH  072%=      5-min Rain = 0
KUM1 110631Z 17008KT 22/16 A3018 RMK A01 T02150164  RH  073%=      5-min Rain = 0
KUM1 110632Z 17007KT 22/17 A3018 RMK A01 T02150165  RH  073%=      5-min Rain = 0
KUM1 110633Z 17008KT 21/16 A3018 RMK A01 T02140164  RH  073%=      5-min Rain = 0
KUM1 110634Z 17008KT 21/17 A3018 RMK A01 T02140165  RH  073%=      5-min Rain = 0
KUM1 110635Z 17008KT 21/17 A3018 RMK A01 T02140165  RH  074%=      5-min Rain = 0
KUM1 110636Z 17007KT 21/17 A3018 RMK A01 T02130165  RH  074%=      5-min Rain = 0
KUM1 110637Z 17007KT 21/17 A3018 RMK A01 T02130165  RH  074%=      5-min Rain = 0
KUM1 110638Z 17008KT 21/17 A3018 RMK A01 T02120165  RH  075%=      5-min Rain = 0
KUM1 110639Z 16007KT 21/17 A3018 RMK A01 T02110165  RH  075%=      5-min Rain = 0
KUM1 110640Z 16007KT 21/17 A3018 RMK A01 T02100165  RH  075%=      5-min Rain = 0
KUM1 110641Z 17007KT 21/16 A3018 RMK A01 T02100164  RH  075%=      5-min Rain = 0
KUM1 110642Z 17007KT 21/17 A3018 RMK A01 T02100165  RH  075%=      5-min Rain = 0
KUM1 110643Z 17007KT 21/17 A3018 RMK A01 T02100165  RH  075%=      5-min Rain = 0
KUM1 110644Z 17007KT 21/16 A3018 RMK A01 T02090164  RH  075%=      5-min Rain = 0
KUM1 110645Z 17007KT 21/16 A3018 RMK A01 T02100164  RH  075%=      5-min Rain = 0
KUM1 110646Z 16007KT 21/16 A3018 RMK A01 T02090164  RH  075%=      5-min Rain = 0
KUM1 110647Z 16007KT 21/16 A3018 RMK A01 T02090164  RH  075%=      5-min Rain = 0
KUM1 110648Z 16007KT 21/16 A3018 RMK A01 T02090164  RH  075%=      5-min Rain = 0
KUM1 110649Z 16008KT 21/16 A3018 RMK A01 T02090164  RH  075%=      5-min Rain = 0
KUM1 110650Z 17008KT 21/16 A3018 RMK A01 T02090164  RH  076%=      5-min Rain = 0
KUM1 110651Z 16008KT 21/16 A3018 RMK A01 T02090164  RH  076%=      5-min Rain = 0
KUM1 110652Z 16008KT 21/16 A3018 RMK A01 T02090164  RH  076%=      5-min Rain = 0
KUM1 110653Z 17008KT 21/16 A3018 RMK A01 T02090164  RH  076%=      5-min Rain = 0
KUM1 110654Z 17008KT 21/16 A3018 RMK A01 T02080164  RH  076%=      5-min Rain = 0
KUM1 110655Z 17008KT 21/16 A3018 RMK A01 T02080164  RH  076%=      5-min Rain = 0
KUM1 110656Z 17008KT 21/16 A3018 RMK A01 T02080164  RH  076%=      5-min Rain = 0
KUM1 110657Z 16008KT 21/16 A3018 RMK A01 T02080164  RH  076%=      5-min Rain = 0
KUM1 110658Z 17008KT 21/16 A3018 RMK A01 T02080164  RH  076%=      5-min Rain = 0
KUM1 110659Z 17008KT 21/17 A3018 RMK A01 T02080165  RH  076%=      5-min Rain = 0
KUM1 110700Z 17008KT 21/17 A3018 RMK A01 T02080165  RH  076%=      5-min Rain = 0
KUM1 110701Z 17008KT 21/17 A3018 RMK A01 T02080165  RH  076%=      5-min Rain = 0
KUM1 110702Z 17008KT 21/17 A3018 RMK A01 T02080165  RH  076%=      5-min Rain = 0
KUM1 110703Z 17007KT 21/16 A3018 RMK A01 T02080164  RH  076%=      5-min Rain = 0
KUM1 110704Z 17007KT 21/16 A3018 RMK A01 T02080164  RH  076%=      5-min Rain = 0
KUM1 110705Z 17007KT 21/17 A3018 RMK A01 T02090165  RH  076%=      5-min Rain = 0
KUM1 110706Z 18008KT 21/16 A3018 RMK A01 T02090164  RH  076%=      5-min Rain = 0
KUM1 110707Z 17007KT 21/17 A3018 RMK A01 T02090165  RH  076%=      5-min Rain = 0
KUM1 110708Z 17007KT 21/16 A3018 RMK A01 T02080164  RH  076%=      5-min Rain = 0
KUM1 110709Z 18007KT 21/17 A3018 RMK A01 T02090165  RH  076%=      5-min Rain = 0
KUM1 110710Z 17007KT 21/17 A3018 RMK A01 T02090165  RH  076%=      5-min Rain = 0
KUM1 110711Z 17008KT 21/16 A3018 RMK A01 T02090164  RH  076%=      5-min Rain = 0
KUM1 110712Z 18007KT 21/17 A3018 RMK A01 T02090165  RH  076%=      5-min Rain = 0
KUM1 110713Z 17008KT 21/16 A3018 RMK A01 T02090164  RH  075%=      5-min Rain = 0
KUM1 110714Z 17008KT 21/16 A3018 RMK A01 T02090164  RH  075%=      5-min Rain = 0
KUM1 110715Z 18008KT 21/16 A3018 RMK A01 T02100164  RH  075%=      5-min Rain = 0
KUM1 110716Z 18008KT 21/16 A3018 RMK A01 T02100164  RH  075%=      5-min Rain = 0
KUM1 110717Z 18009KT 21/16 A3018 RMK A01 T02100164  RH  075%=      5-min Rain = 0
KUM1 110718Z 18008KT 21/16 A3018 RMK A01 T02100164  RH  075%=      5-min Rain = 0
KUM1 110719Z 17008KT 21/16 A3018 RMK A01 T02100164  RH  075%=      5-min Rain = 0
KUM1 110720Z 18008KT 21/16 A3018 RMK A01 T02100164  RH  075%=      5-min Rain = 0
KUM1 110721Z 18008KT 21/16 A3018 RMK A01 T02100163  RH  075%=      5-min Rain = 0
KUM1 110722Z 17008KT 21/16 A3018 RMK A01 T02100164  RH  075%=      5-min Rain = 0
KUM1 110723Z 18008KT 21/16 A3018 RMK A01 T02090163  RH  075%=      5-min Rain = 0
KUM1 110724Z 18007KT 21/16 A3018 RMK A01 T02090163  RH  075%=      5-min Rain = 0
KUM1 110725Z 18007KT 21/16 A3018 RMK A01 T02090163  RH  075%=      5-min Rain = 0
KUM1 110726Z 18007KT 21/16 A3018 RMK A01 T02100164  RH  075%=      5-min Rain = 0
KUM1 110727Z 18007KT 21/16 A3018 RMK A01 T02090163  RH  075%=      5-min Rain = 0
KUM1 110728Z 18007KT 21/16 A3018 RMK A01 T02090163  RH  075%=      5-min Rain = 0
KUM1 110729Z 18007KT 21/16 A3018 RMK A01 T02090163  RH  075%=      5-min Rain = 0
KUM1 110730Z 18007KT 21/16 A3018 RMK A01 T02090163  RH  075%=      5-min Rain = 0
KUM1 110731Z 18007KT 21/16 A3018 RMK A01 T02080163  RH  075%=      5-min Rain = 0
KUM1 110732Z 18007KT 21/16 A3018 RMK A01 T02090164  RH  075%=      5-min Rain = 0
KUM1 110733Z 18007KT 21/16 A3018 RMK A01 T02080163  RH  075%=      5-min Rain = 0
KUM1 110734Z 18007KT 21/16 A3018 RMK A01 T02080163  RH  075%=      5-min Rain = 0
KUM1 110735Z 18007KT 21/16 A3018 RMK A01 T02080163  RH  075%=      5-min Rain = 0
KUM1 110736Z 18008KT 21/16 A3018 RMK A01 T02070163  RH  076%=      5-min Rain = 0
KUM1 110737Z 18008KT 21/16 A3018 RMK A01 T02070163  RH  076%=      5-min Rain = 0
KUM1 110738Z 18008KT 21/16 A3018 RMK A01 T02070163  RH  076%=      5-min Rain = 0
KUM1 110739Z 18008KT 21/16 A3018 RMK A01 T02070163  RH  076%=      5-min Rain = 0
KUM1 110740Z 18008KT 21/16 A3018 RMK A01 T02070163  RH  076%=      5-min Rain = 0
KUM1 110741Z 18009KT 21/16 A3018 RMK A01 T02070163  RH  075%=      5-min Rain = 0
KUM1 110742Z 18009KT 21/16 A3018 RMK A01 T02080163  RH  075%=      5-min Rain = 0
KUM1 110743Z 18008KT 21/16 A3018 RMK A01 T02080163  RH  075%=      5-min Rain = 0
KUM1 110744Z 18009KT 21/16 A3018 RMK A01 T02080163  RH  075%=      5-min Rain = 0
KUM1 110745Z 18009KT 21/16 A3018 RMK A01 T02080163  RH  075%=      5-min Rain = 0
KUM1 110746Z 18009KT 21/16 A3018 RMK A01 T02080163  RH  075%=      5-min Rain = 0
KUM1 110747Z 18009KT 21/16 A3018 RMK A01 T02080162  RH  075%=      5-min Rain = 0
KUM1 110748Z 18009KT 21/16 A3018 RMK A01 T02080162  RH  075%=      5-min Rain = 0
KUM1 110749Z 18009KT 21/16 A3018 RMK A01 T02080163  RH  075%=      5-min Rain = 0
KUM1 110750Z 18009KT 21/16 A3018 RMK A01 T02080163  RH  075%=      5-min Rain = 0
KUM1 110751Z 18009KT 21/16 A3018 RMK A01 T02080163  RH  075%=      5-min Rain = 0
KUM1 110752Z 18009KT 21/16 A3017 RMK A01 T02080162  RH  075%=      5-min Rain = 0
KUM1 110753Z 18009KT 21/16 A3017 RMK A01 T02080163  RH  075%=      5-min Rain = 0
KUM1 110754Z 18009KT 21/16 A3017 RMK A01 T02080163  RH  075%=      5-min Rain = 0
KUM1 110755Z 18009KT 21/16 A3017 RMK A01 T02070163  RH  076%=      5-min Rain = 0
KUM1 110756Z 18009KT 21/16 A3017 RMK A01 T02070163  RH  076%=      5-min Rain = 0
KUM1 110757Z 18008KT 21/16 A3017 RMK A01 T02060163  RH  076%=      5-min Rain = 0
KUM1 110758Z 19009KT 21/16 A3017 RMK A01 T02060163  RH  076%=      5-min Rain = 0
KUM1 110759Z 19009KT 21/16 A3017 RMK A01 T02060163  RH  076%=      5-min Rain = 0
KUM1 110800Z 19009KT 21/16 A3017 RMK A01 T02050163  RH  076%=      5-min Rain = 0
KUM1 110801Z 19009KT 21/16 A3017 RMK A01 T02060163  RH  076%=      5-min Rain = 0
KUM1 110802Z 19009KT 21/16 A3017 RMK A01 T02060163  RH  076%=      5-min Rain = 0
KUM1 110803Z 19008KT 21/16 A3017 RMK A01 T02060162  RH  076%=      5-min Rain = 0
KUM1 110804Z 19009KT 21/16 A3017 RMK A01 T02060162  RH  076%=      5-min Rain = 0
KUM1 110805Z 19008KT 21/16 A3017 RMK A01 T02060163  RH  076%=      5-min Rain = 0
KUM1 110806Z 18008KT 21/16 A3017 RMK A01 T02070163  RH  076%=      5-min Rain = 0
KUM1 110807Z 19008KT 21/16 A3017 RMK A01 T02060163  RH  076%=      5-min Rain = 0
KUM1 110808Z 18009KT 21/16 A3017 RMK A01 T02060163  RH  076%=      5-min Rain = 0
KUM1 110809Z 18009KT 21/16 A3017 RMK A01 T02060163  RH  076%=      5-min Rain = 0
KUM1 110810Z 18009KT 21/16 A3017 RMK A01 T02060163  RH  077%=      5-min Rain = 0
KUM1 110811Z 19010KT 21/16 A3017 RMK A01 T02050163  RH  077%=      5-min Rain = 0
KUM1 110812Z 19010KT 21/16 A3017 RMK A01 T02050163  RH  077%=      5-min Rain = 0
KUM1 110813Z 19009KT 21/16 A3017 RMK A01 T02060163  RH  077%=      5-min Rain = 0
KUM1 110814Z 19009KT 21/16 A3017 RMK A01 T02050163  RH  076%=      5-min Rain = 0
KUM1 110815Z 19010KT 21/16 A3017 RMK A01 T02050163  RH  076%=      5-min Rain = 0
KUM1 110816Z 19010KT 21/16 A3017 RMK A01 T02050163  RH  076%=      5-min Rain = 0
KUM1 110817Z 19010KT 21/16 A3017 RMK A01 T02060163  RH  076%=      5-min Rain = 0
KUM1 110818Z 19009KT 21/16 A3017 RMK A01 T02050163  RH  076%=      5-min Rain = 0
KUM1 110819Z 19010KT 21/16 A3017 RMK A01 T02060163  RH  076%=      5-min Rain = 0
KUM1 110820Z 19009KT 21/16 A3017 RMK A01 T02060163  RH  076%=      5-min Rain = 0
KUM1 110821Z 19010KT 21/16 A3017 RMK A01 T02060163  RH  076%=      5-min Rain = 0
KUM1 110822Z 19009KT 21/16 A3017 RMK A01 T02060163  RH  076%=      5-min Rain = 0
KUM1 110823Z 19010KT 21/16 A3017 RMK A01 T02060163  RH  077%=      5-min Rain = 0
KUM1 110824Z 20010KT 21/16 A3017 RMK A01 T02050163  RH  077%=      5-min Rain = 0
KUM1 110825Z 20010KT 21/16 A3017 RMK A01 T02060163  RH  077%=      5-min Rain = 0
KUM1 110826Z 20010KT 21/16 A3017 RMK A01 T02060163  RH  076%=      5-min Rain = 0
KUM1 110827Z 20010KT 21/16 A3017 RMK A01 T02060163  RH  076%=      5-min Rain = 0
KUM1 110828Z 20010KT 21/16 A3017 RMK A01 T02070164  RH  076%=      5-min Rain = 0
KUM1 110829Z 20010KT 21/16 A3017 RMK A01 T02070164  RH  076%=      5-min Rain = 0
KUM1 110830Z 19010KT 21/16 A3017 RMK A01 T02070164  RH  076%=      5-min Rain = 0
KUM1 110831Z 20010KT 21/16 A3017 RMK A01 T02070164  RH  076%=      5-min Rain = 0
KUM1 110832Z 20009KT 21/16 A3017 RMK A01 T02070164  RH  076%=      5-min Rain = 0
KUM1 110833Z 19010KT 21/16 A3017 RMK A01 T02070164  RH  076%=      5-min Rain = 0
KUM1 110834Z 20009KT 21/16 A3017 RMK A01 T02070164  RH  077%=      5-min Rain = 0
KUM1 110835Z 20009KT 21/16 A3017 RMK A01 T02060164  RH  077%=      5-min Rain = 0
KUM1 110836Z 20009KT 21/16 A3017 RMK A01 T02050164  RH  077%=      5-min Rain = 0
KUM1 110837Z 20009KT 21/16 A3017 RMK A01 T02050164  RH  077%=      5-min Rain = 0
KUM1 110838Z 19009KT 21/17 A3017 RMK A01 T02050165  RH  078%=      5-min Rain = 0
KUM1 110839Z 19009KT 21/17 A3017 RMK A01 T02050165  RH  078%=      5-min Rain = 0
KUM1 110840Z 19009KT 20/17 A3017 RMK A01 T02040165  RH  078%=      5-min Rain = 0
KUM1 110841Z 19008KT 20/17 A3017 RMK A01 T02040165  RH  078%=      5-min Rain = 0
KUM1 110842Z 19009KT 20/17 A3017 RMK A01 T02040165  RH  078%=      5-min Rain = 0
KUM1 110843Z 19008KT 20/17 A3017 RMK A01 T02040165  RH  078%=      5-min Rain = 0
KUM1 110844Z 19008KT 20/17 A3017 RMK A01 T02030165  RH  079%=      5-min Rain = 0
KUM1 110845Z 19008KT 20/17 A3017 RMK A01 T02030165  RH  079%=      5-min Rain = 0
KUM1 110846Z 19009KT 20/17 A3017 RMK A01 T02030165  RH  079%=      5-min Rain = 0
KUM1 110847Z 19008KT 20/17 A3017 RMK A01 T02030165  RH  079%=      5-min Rain = 0
KUM1 110848Z 19007KT 20/16 A3017 RMK A01 T02030164  RH  079%=      5-min Rain = 0
KUM1 110849Z 19008KT 20/17 A3017 RMK A01 T02030165  RH  079%=      5-min Rain = 0
KUM1 110850Z 19007KT 20/17 A3017 RMK A01 T02020165  RH  079%=      5-min Rain = 0
KUM1 110851Z 19008KT 20/17 A3016 RMK A01 T02020165  RH  079%=      5-min Rain = 0
KUM1 110852Z 19007KT 20/16 A3016 RMK A01 T02020164  RH  079%=      5-min Rain = 0
KUM1 110853Z 19007KT 20/16 A3016 RMK A01 T02010164  RH  079%=      5-min Rain = 0
KUM1 110854Z 19008KT 20/16 A3016 RMK A01 T02010164  RH  079%=      5-min Rain = 0
KUM1 110855Z 19007KT 20/16 A3016 RMK A01 T02010164  RH  079%=      5-min Rain = 0
KUM1 110856Z 19008KT 20/16 A3016 RMK A01 T02000164  RH  079%=      5-min Rain = 0
KUM1 110857Z 19008KT 20/16 A3016 RMK A01 T02000163  RH  079%=      5-min Rain = 0
KUM1 110858Z 19008KT 20/16 A3016 RMK A01 T02000163  RH  079%=      5-min Rain = 0
KUM1 110859Z 19008KT 20/16 A3016 RMK A01 T02000163  RH  079%=      5-min Rain = 0
KUM1 110900Z 18008KT 20/16 A3016 RMK A01 T02000163  RH  079%=      5-min Rain = 0
KUM1 110901Z 18007KT 20/16 A3016 RMK A01 T02000163  RH  079%=      5-min Rain = 0
KUM1 110902Z 18008KT 20/16 A3016 RMK A01 T01990163  RH  079%=      5-min Rain = 0
KUM1 110903Z 18008KT 20/16 A3016 RMK A01 T01990163  RH  080%=      5-min Rain = 0
KUM1 110904Z 18009KT 20/16 A3016 RMK A01 T01980163  RH  080%=      5-min Rain = 0
KUM1 110905Z 19008KT 20/16 A3016 RMK A01 T01980163  RH  080%=      5-min Rain = 0
KUM1 110906Z 19009KT 20/16 A3016 RMK A01 T01980163  RH  080%=      5-min Rain = 0
KUM1 110907Z 19010KT 20/16 A3016 RMK A01 T01980163  RH  080%=      5-min Rain = 0
KUM1 110908Z 19009KT 20/16 A3016 RMK A01 T01980163  RH  080%=      5-min Rain = 0
KUM1 110909Z 19009KT 20/16 A3016 RMK A01 T01990163  RH  080%=      5-min Rain = 0
KUM1 110910Z 19009KT 20/16 A3016 RMK A01 T01990163  RH  080%=      5-min Rain = 0
KUM1 110911Z 19009KT 20/16 A3016 RMK A01 T01990162  RH  080%=      5-min Rain = 0
KUM1 110912Z 19010KT 20/16 A3016 RMK A01 T01990162  RH  080%=      5-min Rain = 0
KUM1 110913Z 19010KT 20/16 A3016 RMK A01 T01990162  RH  079%=      5-min Rain = 0
KUM1 110914Z 19010KT 20/16 A3016 RMK A01 T02000162  RH  079%=      5-min Rain = 0
KUM1 110915Z 19010KT 20/16 A3016 RMK A01 T02000162  RH  079%=      5-min Rain = 0
KUM1 110916Z 19010KT 20/16 A3016 RMK A01 T02000162  RH  079%=      5-min Rain = 0
KUM1 110917Z 19010KT 20/16 A3016 RMK A01 T02000162  RH  079%=      5-min Rain = 0
KUM1 110918Z 19010KT 20/16 A3016 RMK A01 T01990162  RH  079%=      5-min Rain = 0
KUM1 110919Z 19010KT 20/16 A3016 RMK A01 T01990162  RH  079%=      5-min Rain = 0
KUM1 110920Z 19011KT 20/16 A3016 RMK A01 T01990163  RH  079%=      5-min Rain = 0
KUM1 110921Z 19010KT 20/16 A3016 RMK A01 T01990162  RH  080%=      5-min Rain = 0
KUM1 110922Z 19011KT 20/16 A3016 RMK A01 T01980162  RH  080%=      5-min Rain = 0
KUM1 110923Z 19010KT 20/16 A3016 RMK A01 T01990162  RH  080%=      5-min Rain = 0
KUM1 110924Z 19010KT 20/16 A3016 RMK A01 T01980162  RH  080%=      5-min Rain = 0
KUM1 110925Z 19010KT 20/16 A3016 RMK A01 T01990162  RH  080%=      5-min Rain = 0
KUM1 110926Z 19011KT 20/16 A3016 RMK A01 T01990162  RH  080%=      5-min Rain = 0
KUM1 110927Z 19010KT 20/16 A3016 RMK A01 T01980162  RH  080%=      5-min Rain = 0
KUM1 110928Z 19011KT 20/16 A3016 RMK A01 T01990163  RH  079%=      5-min Rain = 0
KUM1 110929Z 19009KT 20/16 A3016 RMK A01 T01990162  RH  079%=      5-min Rain = 0
KUM1 110930Z 19010KT 20/16 A3016 RMK A01 T01990162  RH  079%=      5-min Rain = 0
KUM1 110931Z 19010KT 20/16 A3016 RMK A01 T01990163  RH  079%=      5-min Rain = 0
KUM1 110932Z 19010KT 20/16 A3016 RMK A01 T01990163  RH  079%=      5-min Rain = 0
KUM1 110933Z 19010KT 20/16 A3016 RMK A01 T01990163  RH  080%=      5-min Rain = 0
KUM1 110934Z 19010KT 20/16 A3016 RMK A01 T01990163  RH  080%=      5-min Rain = 0
KUM1 110935Z 19010KT 20/16 A3016 RMK A01 T01990163  RH  080%=      5-min Rain = 0
KUM1 110936Z 19010KT 20/16 A3016 RMK A01 T01980163  RH  080%=      5-min Rain = 0
KUM1 110937Z 19010KT 20/16 A3016 RMK A01 T01990163  RH  080%=      5-min Rain = 0
KUM1 110938Z 19010KT 20/16 A3016 RMK A01 T01980163  RH  080%=      5-min Rain = 0
KUM1 110939Z 19010KT 20/16 A3016 RMK A01 T01980163  RH  080%=      5-min Rain = 0
KUM1 110940Z 19010KT 20/16 A3016 RMK A01 T01980163  RH  080%=      5-min Rain = 0
KUM1 110941Z 20009KT 20/16 A3016 RMK A01 T01980163  RH  081%=      5-min Rain = 0
KUM1 110942Z 19010KT 20/16 A3016 RMK A01 T01970163  RH  081%=      5-min Rain = 0
KUM1 110943Z 20010KT 20/16 A3016 RMK A01 T01970163  RH  081%=      5-min Rain = 0
KUM1 110944Z 20010KT 20/16 A3016 RMK A01 T01970163  RH  081%=      5-min Rain = 0
KUM1 110945Z 19010KT 20/16 A3016 RMK A01 T01970163  RH  081%=      5-min Rain = 0
KUM1 110946Z 20010KT 20/16 A3016 RMK A01 T01970164  RH  081%=      5-min Rain = 0
KUM1 110947Z 20009KT 20/16 A3016 RMK A01 T01960163  RH  081%=      5-min Rain = 0
KUM1 110948Z 20009KT 20/16 A3016 RMK A01 T01960163  RH  081%=      5-min Rain = 0
KUM1 110949Z 20010KT 20/16 A3016 RMK A01 T01960163  RH  082%=      5-min Rain = 0
KUM1 110950Z 20010KT 20/16 A3016 RMK A01 T01950163  RH  082%=      5-min Rain = 0
KUM1 110951Z 20009KT 20/16 A3016 RMK A01 T01950163  RH  082%=      5-min Rain = 0
KUM1 110952Z 20009KT 20/16 A3016 RMK A01 T01950163  RH  082%=      5-min Rain = 0
KUM1 110953Z 20009KT 20/16 A3016 RMK A01 T01950163  RH  082%=      5-min Rain = 0
KUM1 110954Z 20009KT 20/16 A3016 RMK A01 T01960163  RH  082%=      5-min Rain = 0
KUM1 110955Z 20009KT 20/16 A3016 RMK A01 T01950163  RH  082%=      5-min Rain = 0
KUM1 110956Z 19009KT 20/16 A3016 RMK A01 T01950163  RH  082%=      5-min Rain = 0
KUM1 110957Z 19009KT 20/16 A3016 RMK A01 T01950163  RH  082%=      5-min Rain = 0
KUM1 110958Z 19008KT 20/16 A3016 RMK A01 T01950163  RH  082%=      5-min Rain = 0
KUM1 110959Z 19009KT 20/16 A3016 RMK A01 T01950163  RH  082%=      5-min Rain = 0
KUM1 111000Z 19009KT 19/16 A3016 RMK A01 T01940163  RH  082%=      5-min Rain = 0
KUM1 111001Z 19009KT 19/16 A3016 RMK A01 T01940163  RH  082%=      5-min Rain = 0
KUM1 111002Z 19008KT 19/16 A3016 RMK A01 T01940163  RH  082%=      5-min Rain = 0
KUM1 111003Z 19008KT 19/16 A3016 RMK A01 T01940163  RH  082%=      5-min Rain = 0
KUM1 111004Z 19008KT 19/16 A3016 RMK A01 T01940163  RH  082%=      5-min Rain = 0
KUM1 111005Z 19009KT 19/16 A3016 RMK A01 T01940163  RH  082%=      5-min Rain = 0
KUM1 111006Z 19009KT 19/16 A3016 RMK A01 T01930162  RH  082%=      5-min Rain = 0
KUM1 111007Z 19009KT 19/16 A3016 RMK A01 T01930163  RH  082%=      5-min Rain = 0
KUM1 111008Z 19008KT 19/16 A3015 RMK A01 T01930162  RH  082%=      5-min Rain = 0
KUM1 111009Z 19009KT 19/16 A3015 RMK A01 T01930162  RH  082%=      5-min Rain = 0
KUM1 111010Z 19008KT 19/16 A3015 RMK A01 T01930162  RH  083%=      5-min Rain = 0
KUM1 111011Z 19008KT 19/16 A3015 RMK A01 T01930162  RH  082%=      5-min Rain = 0
KUM1 111012Z 19008KT 19/16 A3015 RMK A01 T01930162  RH  082%=      5-min Rain = 0
KUM1 111013Z 19009KT 19/16 A3015 RMK A01 T01930162  RH  082%=      5-min Rain = 0
KUM1 111014Z 19009KT 19/16 A3015 RMK A01 T01930162  RH  082%=      5-min Rain = 0
KUM1 111015Z 19009KT 19/16 A3015 RMK A01 T01930162  RH  082%=      5-min Rain = 0
KUM1 111016Z 19009KT 19/16 A3015 RMK A01 T01930162  RH  082%=      5-min Rain = 0
KUM1 111017Z 19009KT 19/16 A3015 RMK A01 T01930162  RH  082%=      5-min Rain = 0
KUM1 111018Z 19008KT 19/16 A3015 RMK A01 T01930162  RH  082%=      5-min Rain = 0
KUM1 111019Z 20009KT 19/16 A3015 RMK A01 T01920162  RH  082%=      5-min Rain = 0
KUM1 111020Z 19009KT 19/16 A3015 RMK A01 T01930162  RH  082%=      5-min Rain = 0
KUM1 111021Z 20009KT 19/16 A3015 RMK A01 T01930162  RH  082%=      5-min Rain = 0
KUM1 111022Z 20008KT 19/16 A3015 RMK A01 T01930162  RH  082%=      5-min Rain = 0
KUM1 111023Z 20009KT 19/16 A3015 RMK A01 T01930162  RH  082%=      5-min Rain = 0
KUM1 111024Z 20009KT 19/16 A3015 RMK A01 T01930162  RH  083%=      5-min Rain = 0
KUM1 111025Z 20009KT 19/16 A3015 RMK A01 T01930163  RH  082%=      5-min Rain = 0
KUM1 111026Z 20008KT 19/16 A3015 RMK A01 T01930163  RH  083%=      5-min Rain = 0
KUM1 111027Z 20009KT 19/16 A3015 RMK A01 T01930163  RH  083%=      5-min Rain = 0
KUM1 111028Z 20008KT 19/16 A3015 RMK A01 T01930163  RH  083%=      5-min Rain = 0
KUM1 111029Z 20008KT 19/16 A3015 RMK A01 T01930163  RH  083%=      5-min Rain = 0
KUM1 111030Z 20008KT 19/16 A3015 RMK A01 T01930163  RH  083%=      5-min Rain = 0
KUM1 111031Z 20008KT 19/16 A3015 RMK A01 T01930163  RH  083%=      5-min Rain = 0
KUM1 111032Z 20008KT 19/16 A3015 RMK A01 T01930163  RH  083%=      5-min Rain = 0
KUM1 111033Z 20008KT 19/16 A3015 RMK A01 T01930163  RH  083%=      5-min Rain = 0
KUM1 111034Z 20008KT 19/16 A3015 RMK A01 T01930163  RH  083%=      5-min Rain = 0
KUM1 111035Z 19008KT 19/16 A3016 RMK A01 T01930163  RH  083%=      5-min Rain = 0
KUM1 111036Z 20008KT 19/16 A3016 RMK A01 T01930163  RH  083%=      5-min Rain = 0
KUM1 111037Z 19008KT 19/16 A3016 RMK A01 T01930163  RH  083%=      5-min Rain = 0
KUM1 111038Z 19008KT 19/16 A3016 RMK A01 T01920163  RH  083%=      5-min Rain = 0
KUM1 111039Z 20008KT 19/16 A3016 RMK A01 T01920163  RH  083%=      5-min Rain = 0
KUM1 111040Z 19008KT 19/16 A3016 RMK A01 T01920163  RH  083%=      5-min Rain = 0
KUM1 111041Z 19007KT 19/16 A3016 RMK A01 T01910163  RH  084%=      5-min Rain = 0
KUM1 111042Z 19007KT 19/16 A3016 RMK A01 T01910163  RH  084%=      5-min Rain = 0
KUM1 111043Z 19007KT 19/16 A3016 RMK A01 T01910163  RH  084%=      5-min Rain = 0
KUM1 111044Z 19008KT 19/16 A3016 RMK A01 T01910163  RH  084%=      5-min Rain = 0
KUM1 111045Z 19007KT 19/16 A3016 RMK A01 T01910163  RH  084%=      5-min Rain = 0
KUM1 111046Z 19007KT 19/16 A3016 RMK A01 T01900163  RH  084%=      5-min Rain = 0
KUM1 111047Z 20007KT 19/16 A3016 RMK A01 T01900162  RH  084%=      5-min Rain = 0
KUM1 111048Z 20006KT 19/16 A3016 RMK A01 T01900163  RH  084%=      5-min Rain = 0
KUM1 111049Z 20006KT 19/16 A3016 RMK A01 T01890162  RH  084%=      5-min Rain = 0
KUM1 111050Z 20006KT 19/16 A3016 RMK A01 T01890162  RH  084%=      5-min Rain = 0
KUM1 111051Z 21006KT 19/16 A3016 RMK A01 T01890162  RH  085%=      5-min Rain = 0
KUM1 111052Z 21007KT 19/16 A3016 RMK A01 T01890162  RH  085%=      5-min Rain = 0
KUM1 111053Z 21007KT 19/16 A3016 RMK A01 T01880162  RH  085%=      5-min Rain = 0
KUM1 111054Z 21007KT 19/16 A3016 RMK A01 T01880162  RH  085%=      5-min Rain = 0
KUM1 111055Z 21007KT 19/16 A3016 RMK A01 T01880163  RH  085%=      5-min Rain = 0
KUM1 111056Z 21007KT 19/16 A3016 RMK A01 T01880163  RH  085%=      5-min Rain = 0
KUM1 111057Z 21007KT 19/16 A3016 RMK A01 T01880163  RH  085%=      5-min Rain = 0
KUM1 111058Z 21007KT 19/16 A3016 RMK A01 T01880163  RH  085%=      5-min Rain = 0
KUM1 111059Z 20007KT 19/16 A3016 RMK A01 T01880163  RH  086%=      5-min Rain = 0
KUM1 111100Z 20007KT 19/16 A3016 RMK A01 T01880163  RH  086%=      5-min Rain = 0
KUM1 111101Z 20007KT 19/16 A3016 RMK A01 T01880163  RH  086%=      5-min Rain = 0
KUM1 111102Z 20007KT 19/16 A3016 RMK A01 T01880163  RH  086%=      5-min Rain = 0
KUM1 111103Z 20007KT 19/16 A3016 RMK A01 T01870163  RH  086%=      5-min Rain = 0
KUM1 111104Z 20007KT 19/16 A3016 RMK A01 T01870163  RH  086%=      5-min Rain = 0
KUM1 111105Z 20007KT 19/16 A3016 RMK A01 T01870163  RH  086%=      5-min Rain = 0
KUM1 111106Z 20007KT 19/16 A3016 RMK A01 T01870163  RH  086%=      5-min Rain = 0
KUM1 111107Z 20007KT 19/16 A3016 RMK A01 T01870163  RH  086%=      5-min Rain = 0
KUM1 111108Z 20007KT 19/16 A3016 RMK A01 T01870163  RH  086%=      5-min Rain = 0
KUM1 111109Z 20007KT 19/16 A3016 RMK A01 T01860162  RH  086%=      5-min Rain = 0
KUM1 111110Z 20007KT 19/16 A3016 RMK A01 T01860162  RH  086%=      5-min Rain = 0
KUM1 111111Z 20007KT 19/16 A3016 RMK A01 T01860162  RH  086%=      5-min Rain = 0
KUM1 111112Z 21007KT 19/16 A3016 RMK A01 T01860162  RH  086%=      5-min Rain = 0
KUM1 111113Z 21007KT 19/16 A3016 RMK A01 T01860162  RH  086%=      5-min Rain = 0
KUM1 111114Z 21007KT 19/16 A3016 RMK A01 T01860162  RH  086%=      5-min Rain = 0
KUM1 111115Z 21007KT 19/16 A3016 RMK A01 T01860162  RH  086%=      5-min Rain = 0
KUM1 111116Z 21007KT 19/16 A3016 RMK A01 T01850162  RH  086%=      5-min Rain = 0
KUM1 111117Z 21007KT 19/16 A3016 RMK A01 T01850162  RH  086%=      5-min Rain = 0
KUM1 111118Z 21007KT 19/16 A3016 RMK A01 T01850162  RH  086%=      5-min Rain = 0
KUM1 111119Z 21007KT 19/16 A3016 RMK A01 T01860162  RH  086%=      5-min Rain = 0
KUM1 111120Z 20007KT 19/16 A3016 RMK A01 T01850162  RH  086%=      5-min Rain = 0
KUM1 111121Z 20007KT 19/16 A3016 RMK A01 T01850162  RH  086%=      5-min Rain = 0
KUM1 111122Z 21007KT 19/16 A3016 RMK A01 T01850162  RH  087%=      5-min Rain = 0
KUM1 111123Z 21007KT 19/16 A3016 RMK A01 T01850162  RH  087%=      5-min Rain = 0
KUM1 111124Z 21007KT 18/16 A3016 RMK A01 T01840162  RH  087%=      5-min Rain = 0
KUM1 111125Z 21007KT 18/16 A3016 RMK A01 T01840162  RH  087%=      5-min Rain = 0
KUM1 111126Z 21007KT 18/16 A3016 RMK A01 T01840162  RH  087%=      5-min Rain = 0
KUM1 111127Z 21007KT 19/16 A3016 RMK A01 T01850162  RH  087%=      5-min Rain = 0
KUM1 111128Z 20007KT 19/16 A3016 RMK A01 T01850162  RH  087%=      5-min Rain = 0
KUM1 111129Z 20007KT 18/16 A3016 RMK A01 T01840162  RH  087%=      5-min Rain = 0
KUM1 111130Z 20007KT 18/16 A3016 RMK A01 T01840162  RH  087%=      5-min Rain = 0
KUM1 111131Z 20007KT 18/16 A3016 RMK A01 T01840162  RH  087%=      5-min Rain = 0
KUM1 111132Z 21007KT 18/16 A3016 RMK A01 T01840162  RH  087%=      5-min Rain = 0
KUM1 111133Z 21006KT 19/16 A3016 RMK A01 T01850162  RH  087%=      5-min Rain = 0
KUM1 111134Z 21006KT 18/16 A3016 RMK A01 T01840162  RH  087%=      5-min Rain = 0
KUM1 111135Z 21006KT 18/16 A3016 RMK A01 T01840162  RH  087%=      5-min Rain = 0
KUM1 111136Z 21006KT 18/16 A3016 RMK A01 T01840162  RH  087%=      5-min Rain = 0
KUM1 111137Z 21006KT 18/16 A3016 RMK A01 T01840162  RH  087%=      5-min Rain = 0
KUM1 111138Z 20006KT 18/16 A3016 RMK A01 T01840162  RH  087%=      5-min Rain = 0
KUM1 111139Z 21006KT 18/16 A3016 RMK A01 T01840162  RH  087%=      5-min Rain = 0
KUM1 111140Z 21006KT 18/16 A3016 RMK A01 T01840162  RH  087%=      5-min Rain = 0
KUM1 111141Z 20006KT 18/16 A3016 RMK A01 T01840162  RH  087%=      5-min Rain = 0
KUM1 111142Z 20006KT 18/16 A3016 RMK A01 T01840162  RH  087%=      5-min Rain = 0
KUM1 111143Z 20006KT 18/16 A3016 RMK A01 T01840162  RH  087%=      5-min Rain = 0
KUM1 111144Z 21006KT 18/16 A3016 RMK A01 T01840162  RH  087%=      5-min Rain = 0
KUM1 111145Z 21005KT 18/16 A3016 RMK A01 T01840162  RH  087%=      5-min Rain = 0
KUM1 111146Z 21005KT 18/16 A3016 RMK A01 T01840162  RH  087%=      5-min Rain = 0
KUM1 111147Z 21005KT 18/16 A3016 RMK A01 T01840162  RH  087%=      5-min Rain = 0
KUM1 111148Z 21005KT 18/16 A3016 RMK A01 T01840162  RH  087%=      5-min Rain = 0
KUM1 111149Z 21005KT 18/16 A3016 RMK A01 T01840162  RH  087%=      5-min Rain = 0
KUM1 111150Z 21005KT 18/16 A3016 RMK A01 T01840162  RH  087%=      5-min Rain = 0
KUM1 111151Z 21005KT 18/16 A3016 RMK A01 T01840162  RH  087%=      5-min Rain = 0
KUM1 111152Z 20005KT 18/16 A3016 RMK A01 T01840162  RH  087%=      5-min Rain = 0
KUM1 111153Z 21005KT 18/16 A3016 RMK A01 T01840162  RH  087%=      5-min Rain = 0
KUM1 111154Z 21005KT 18/16 A3016 RMK A01 T01840161  RH  087%=      5-min Rain = 0
KUM1 111155Z 21005KT 18/16 A3016 RMK A01 T01840162  RH  087%=      5-min Rain = 0
KUM1 111156Z 21006KT 18/16 A3016 RMK A01 T01840161  RH  087%=      5-min Rain = 0
KUM1 111157Z 21006KT 18/16 A3016 RMK A01 T01840162  RH  087%=      5-min Rain = 0
KUM1 111158Z 21006KT 19/16 A3016 RMK A01 T01850162  RH  087%=      5-min Rain = 0
KUM1 111159Z 21006KT 18/16 A3016 RMK A01 T01840162  RH  087%=      5-min Rain = 0
KUM1 111200Z 21006KT 18/16 A3016 RMK A01 T01840162  RH  087%=      5-min Rain = 0
KUM1 111201Z 22006KT 18/16 A3016 RMK A01 T01840162  RH  087%=      5-min Rain = 0
KUM1 111202Z 22006KT 18/16 A3016 RMK A01 T01840162  RH  087%=      5-min Rain = 0
KUM1 111203Z 22006KT 19/16 A3016 RMK A01 T01850162  RH  087%=      5-min Rain = 0
KUM1 111204Z 22005KT 19/16 A3016 RMK A01 T01850162  RH  087%=      5-min Rain = 0
KUM1 111205Z 22005KT 19/16 A3016 RMK A01 T01850162  RH  086%=      5-min Rain = 0
KUM1 111206Z 23005KT 19/16 A3016 RMK A01 T01860162  RH  086%=      5-min Rain = 0
KUM1 111207Z 23005KT 19/16 A3017 RMK A01 T01860162  RH  086%=      5-min Rain = 0
KUM1 111208Z 23005KT 19/16 A3017 RMK A01 T01870163  RH  085%=      5-min Rain = 0
KUM1 111209Z 23005KT 19/16 A3017 RMK A01 T01870162  RH  085%=      5-min Rain = 0
KUM1 111210Z 23005KT 19/16 A3017 RMK A01 T01880162  RH  085%=      5-min Rain = 0
KUM1 111211Z 23005KT 19/16 A3017 RMK A01 T01880162  RH  085%=      5-min Rain = 0
KUM1 111212Z 23004KT 19/16 A3017 RMK A01 T01880163  RH  085%=      5-min Rain = 0
KUM1 111213Z 23004KT 19/16 A3017 RMK A01 T01880162  RH  085%=      5-min Rain = 0
KUM1 111214Z 23004KT 19/16 A3017 RMK A01 T01880162  RH  085%=      5-min Rain = 0
KUM1 111215Z 23004KT 19/16 A3017 RMK A01 T01880162  RH  085%=      5-min Rain = 0
KUM1 111216Z 23004KT 19/16 A3017 RMK A01 T01880162  RH  085%=      5-min Rain = 0
KUM1 111217Z 22005KT 19/16 A3016 RMK A01 T01880163  RH  085%=      5-min Rain = 0
KUM1 111218Z 22005KT 19/16 A3016 RMK A01 T01880163  RH  085%=      5-min Rain = 0
KUM1 111219Z 22005KT 19/16 A3016 RMK A01 T01880163  RH  086%=      5-min Rain = 0
KUM1 111220Z 22004KT 19/16 A3016 RMK A01 T01880163  RH  086%=      5-min Rain = 0
KUM1 111221Z 22004KT 19/16 A3016 RMK A01 T01880163  RH  086%=      5-min Rain = 0
KUM1 111222Z 22005KT 19/16 A3016 RMK A01 T01880164  RH  086%=      5-min Rain = 0
KUM1 111223Z 22004KT 19/16 A3016 RMK A01 T01890164  RH  086%=      5-min Rain = 0
KUM1 111224Z 21005KT 19/17 A3017 RMK A01 T01900165  RH  085%=      5-min Rain = 0
KUM1 111225Z 21005KT 19/16 A3017 RMK A01 T01900164  RH  085%=      5-min Rain = 0
KUM1 111226Z 21006KT 19/16 A3017 RMK A01 T01910164  RH  085%=      5-min Rain = 0
KUM1 111227Z 21005KT 19/16 A3017 RMK A01 T01920164  RH  084%=      5-min Rain = 0
KUM1 111228Z 21006KT 19/16 A3017 RMK A01 T01920164  RH  084%=      5-min Rain = 0
KUM1 111229Z 21006KT 19/16 A3017 RMK A01 T01940164  RH  083%=      5-min Rain = 0
KUM1 111230Z 20005KT 20/17 A3017 RMK A01 T01950165  RH  083%=      5-min Rain = 0
KUM1 111231Z 19004KT 20/17 A3017 RMK A01 T01950165  RH  083%=      5-min Rain = 0
KUM1 111232Z 20004KT 20/17 A3017 RMK A01 T01960165  RH  083%=      5-min Rain = 0
KUM1 111233Z 20005KT 20/17 A3017 RMK A01 T01970165  RH  082%=      5-min Rain = 0
KUM1 111234Z 18003KT 20/17 A3017 RMK A01 T01970165  RH  082%=      5-min Rain = 0
KUM1 111235Z 19004KT 20/17 A3017 RMK A01 T01980166  RH  082%=      5-min Rain = 0
KUM1 111236Z 19005KT 20/17 A3017 RMK A01 T01980165  RH  081%=      5-min Rain = 0
KUM1 111237Z 19004KT 20/17 A3017 RMK A01 T01980165  RH  081%=      5-min Rain = 0
KUM1 111238Z 19005KT 20/17 A3017 RMK A01 T01980165  RH  081%=      5-min Rain = 0
KUM1 111239Z 19005KT 20/17 A3017 RMK A01 T01990166  RH  081%=      5-min Rain = 0
KUM1 111240Z 19006KT 20/17 A3017 RMK A01 T01990166  RH  081%=      5-min Rain = 0
KUM1 111241Z 19006KT 20/17 A3017 RMK A01 T01990165  RH  081%=      5-min Rain = 0
KUM1 111242Z 19006KT 20/17 A3017 RMK A01 T01980165  RH  081%=      5-min Rain = 0
KUM1 111243Z 20005KT 20/17 A3017 RMK A01 T01980166  RH  082%=      5-min Rain = 0
KUM1 111244Z 20005KT 20/17 A3017 RMK A01 T01980166  RH  082%=      5-min Rain = 0
KUM1 111245Z 20006KT 20/17 A3017 RMK A01 T01990166  RH  081%=      5-min Rain = 0
KUM1 111246Z 20006KT 20/17 A3017 RMK A01 T01990166  RH  082%=      5-min Rain = 0
KUM1 111247Z 21006KT 20/17 A3017 RMK A01 T01990167  RH  082%=      5-min Rain = 0
KUM1 111248Z 21005KT 20/17 A3017 RMK A01 T01990166  RH  081%=      5-min Rain = 0
KUM1 111249Z 21005KT 20/17 A3017 RMK A01 T01990166  RH  081%=      5-min Rain = 0
KUM1 111250Z 21006KT 20/17 A3017 RMK A01 T02000167  RH  081%=      5-min Rain = 0
KUM1 111251Z 21004KT 20/17 A3017 RMK A01 T02000167  RH  081%=      5-min Rain = 0
KUM1 111252Z 20004KT 20/17 A3017 RMK A01 T02010168  RH  081%=      5-min Rain = 0
KUM1 111253Z 21005KT 20/17 A3017 RMK A01 T02020168  RH  081%=      5-min Rain = 0
KUM1 111254Z 20005KT 20/17 A3017 RMK A01 T02020168  RH  081%=      5-min Rain = 0
KUM1 111255Z 20005KT 20/17 A3017 RMK A01 T02030168  RH  080%=      5-min Rain = 0
KUM1 111256Z 21005KT 20/17 A3017 RMK A01 T02040169  RH  081%=      5-min Rain = 0
KUM1 111257Z 21007KT 20/17 A3017 RMK A01 T02040168  RH  080%=      5-min Rain = 0
KUM1 111258Z 21006KT 21/17 A3017 RMK A01 T02050168  RH  079%=      5-min Rain = 0
KUM1 111259Z 21006KT 21/17 A3017 RMK A01 T02050168  RH  080%=      5-min Rain = 0
KUM1 111300Z 21006KT 21/17 A3017 RMK A01 T02050169  RH  080%=      5-min Rain = 0
KUM1 111301Z 21007KT 21/17 A3017 RMK A01 T02060169  RH  079%=      5-min Rain = 0
KUM1 111302Z 22006KT 21/17 A3017 RMK A01 T02060169  RH  079%=      5-min Rain = 0
KUM1 111303Z 21006KT 21/17 A3017 RMK A01 T02070169  RH  079%=      5-min Rain = 0
KUM1 111304Z 22006KT 21/17 A3017 RMK A01 T02080169  RH  079%=      5-min Rain = 0
KUM1 111305Z 22006KT 21/17 A3017 RMK A01 T02090170  RH  078%=      5-min Rain = 0
KUM1 111306Z 22005KT 21/17 A3017 RMK A01 T02100171  RH  078%=      5-min Rain = 0
KUM1 111307Z 21007KT 21/17 A3017 RMK A01 T02100170  RH  077%=      5-min Rain = 0
KUM1 111308Z 22007KT 21/17 A3017 RMK A01 T02110169  RH  077%=      5-min Rain = 0
KUM1 111309Z 22008KT 21/17 A3017 RMK A01 T02110169  RH  077%=      5-min Rain = 0
KUM1 111310Z 22008KT 21/17 A3017 RMK A01 T02110169  RH  077%=      5-min Rain = 0
KUM1 111311Z 22007KT 21/17 A3017 RMK A01 T02110169  RH  077%=      5-min Rain = 0
KUM1 111312Z 22008KT 21/17 A3017 RMK A01 T02120169  RH  076%=      5-min Rain = 0
KUM1 111313Z 22009KT 21/17 A3017 RMK A01 T02130169  RH  076%=      5-min Rain = 0
KUM1 111314Z 22009KT 21/17 A3017 RMK A01 T02130169  RH  076%=      5-min Rain = 0
KUM1 111315Z 22008KT 21/17 A3017 RMK A01 T02140169  RH  076%=      5-min Rain = 0
KUM1 111316Z 23008KT 21/17 A3017 RMK A01 T02140169  RH  076%=      5-min Rain = 0
KUM1 111317Z 22009KT 21/17 A3017 RMK A01 T02130169  RH  076%=      5-min Rain = 0
KUM1 111318Z 22008KT 21/17 A3017 RMK A01 T02130168  RH  075%=      5-min Rain = 0
KUM1 111319Z 23006KT 21/17 A3017 RMK A01 T02140170  RH  076%=      5-min Rain = 0
KUM1 111320Z 22007KT 22/17 A3017 RMK A01 T02150171  RH  076%=      5-min Rain = 0
KUM1 111321Z 23007KT 22/17 A3017 RMK A01 T02160171  RH  076%=      5-min Rain = 0
KUM1 111322Z 23007KT 22/17 A3017 RMK A01 T02160170  RH  075%=      5-min Rain = 0
KUM1 111323Z 23007KT 22/17 A3017 RMK A01 T02160170  RH  075%=      5-min Rain = 0
KUM1 111324Z 23007KT 22/17 A3017 RMK A01 T02160170  RH  075%=      5-min Rain = 0
KUM1 111325Z 23008KT 22/17 A3017 RMK A01 T02160170  RH  075%=      5-min Rain = 0
KUM1 111326Z 22008KT 22/17 A3017 RMK A01 T02160170  RH  075%=      5-min Rain = 0
KUM1 111327Z 23007KT 22/17 A3017 RMK A01 T02160170  RH  075%=      5-min Rain = 0
KUM1 111328Z 23006KT 22/17 A3017 RMK A01 T02160171  RH  075%=      5-min Rain = 0
KUM1 111329Z 22007KT 22/17 A3017 RMK A01 T02180172  RH  075%=      5-min Rain = 0
KUM1 111330Z 22007KT 22/17 A3017 RMK A01 T02190171  RH  074%=      5-min Rain = 0
KUM1 111331Z 22007KT 22/17 A3017 RMK A01 T02190171  RH  074%=      5-min Rain = 0
KUM1 111332Z 23006KT 22/17 A3017 RMK A01 T02200172  RH  074%=      5-min Rain = 0
KUM1 111333Z 22006KT 22/17 A3017 RMK A01 T02210172  RH  073%=      5-min Rain = 0
KUM1 111334Z 22008KT 22/17 A3017 RMK A01 T02220171  RH  073%=      5-min Rain = 0
KUM1 111335Z 22007KT 22/17 A3017 RMK A01 T02220171  RH  073%=      5-min Rain = 0
KUM1 111336Z 22008KT 22/17 A3017 RMK A01 T02220171  RH  073%=      5-min Rain = 0
KUM1 111337Z 22009KT 22/17 A3017 RMK A01 T02230171  RH  072%=      5-min Rain = 0
KUM1 111338Z 21008KT 22/17 A3017 RMK A01 T02230170  RH  072%=      5-min Rain = 0
KUM1 111339Z 21007KT 22/17 A3017 RMK A01 T02230171  RH  072%=      5-min Rain = 0
KUM1 111340Z 21007KT 22/17 A3017 RMK A01 T02230171  RH  072%=      5-min Rain = 0
KUM1 111341Z 21008KT 22/17 A3017 RMK A01 T02240171  RH  072%=      5-min Rain = 0
KUM1 111342Z 21008KT 23/17 A3017 RMK A01 T02250171  RH  072%=      5-min Rain = 0
KUM1 111343Z 21009KT 23/17 A3017 RMK A01 T02250171  RH  072%=      5-min Rain = 0
KUM1 111344Z 22009KT 23/17 A3017 RMK A01 T02250171  RH  072%=      5-min Rain = 0
KUM1 111345Z 22009KT 23/17 A3017 RMK A01 T02250171  RH  071%=      5-min Rain = 0
KUM1 111346Z 22009KT 23/17 A3017 RMK A01 T02260170  RH  071%=      5-min Rain = 0
KUM1 111347Z 22008KT 23/17 A3017 RMK A01 T02260170  RH  071%=      5-min Rain = 0
KUM1 111348Z 22009KT 23/17 A3017 RMK A01 T02270172  RH  071%=      5-min Rain = 0
KUM1 111349Z 21009KT 23/17 A3017 RMK A01 T02280171  RH  070%=      5-min Rain = 0
KUM1 111350Z 21009KT 23/17 A3017 RMK A01 T02280171  RH  070%=      5-min Rain = 0
KUM1 111351Z 21010KT 23/17 A3017 RMK A01 T02290170  RH  070%=      5-min Rain = 0
KUM1 111352Z 21010KT 23/17 A3017 RMK A01 T02290172  RH  070%=      5-min Rain = 0
KUM1 111353Z 21009KT 23/17 A3017 RMK A01 T02280171  RH  070%=      5-min Rain = 0
KUM1 111354Z 21009KT 23/17 A3017 RMK A01 T02290171  RH  070%=      5-min Rain = 0
KUM1 111355Z 21010KT 23/17 A3017 RMK A01 T02290171  RH  070%=      5-min Rain = 0
KUM1 111356Z 21010KT 23/17 A3018 RMK A01 T02300171  RH  069%=      5-min Rain = 0
KUM1 111357Z 21008KT 23/17 A3018 RMK A01 T02320172  RH  069%=      5-min Rain = 0
KUM1 111358Z 21010KT 24/17 A3018 RMK A01 T02350173  RH  068%=      5-min Rain = 0
KUM1 111359Z 21011KT 24/17 A3018 RMK A01 T02350170  RH  067%=      5-min Rain = 0
KUM1 111400Z 21010KT 24/17 A3018 RMK A01 T02350170  RH  067%=      5-min Rain = 0
KUM1 111401Z 20010KT 23/17 A3018 RMK A01 T02340172  RH  068%=      5-min Rain = 0
KUM1 111402Z 21009KT 24/17 A3018 RMK A01 T02350172  RH  068%=      5-min Rain = 0
KUM1 111403Z 21009KT 24/17 A3018 RMK A01 T02360172  RH  068%=      5-min Rain = 0
KUM1 111404Z 21010KT 24/17 A3018 RMK A01 T02360171  RH  067%=      5-min Rain = 0
KUM1 111405Z 21010KT 24/17 A3017 RMK A01 T02360171  RH  067%=      5-min Rain = 0
KUM1 111406Z 21011KT 24/17 A3017 RMK A01 T02360169  RH  066%=      5-min Rain = 0
KUM1 111407Z 21012KT 24/17 A3017 RMK A01 T02360170  RH  067%=      5-min Rain = 0
KUM1 111408Z 21011KT 24/17 A3017 RMK A01 T02360171  RH  067%=      5-min Rain = 0
KUM1 111409Z 21011KT 24/17 A3017 RMK A01 T02370172  RH  067%=      5-min Rain = 0
KUM1 111410Z 22009KT 24/17 A3017 RMK A01 T02360172  RH  067%=      5-min Rain = 0
KUM1 111411Z 21010KT 24/17 A3017 RMK A01 T02360173  RH  068%=      5-min Rain = 0
KUM1 111412Z 20011KT 24/17 A3017 RMK A01 T02370173  RH  067%=      5-min Rain = 0
KUM1 111413Z 21012KT 24/17 A3017 RMK A01 T02390171  RH  065%=      5-min Rain = 0
KUM1 111414Z 20012KT 24/17 A3017 RMK A01 T02400170  RH  065%=      5-min Rain = 0
KUM1 111415Z 21013KT 24/17 A3017 RMK A01 T02400171  RH  065%=      5-min Rain = 0
KUM1 111416Z 21010KT 24/17 A3018 RMK A01 T02400169  RH  064%=      5-min Rain = 0
KUM1 111417Z 21011KT 24/17 A3018 RMK A01 T02410171  RH  065%=      5-min Rain = 0
KUM1 111418Z 20013KT 24/17 A3018 RMK A01 T02420170  RH  064%=      5-min Rain = 0
KUM1 111419Z 20011KT 24/17 A3018 RMK A01 T02420171  RH  064%=      5-min Rain = 0
KUM1 111420Z 21011KT 24/17 A3018 RMK A01 T02430172  RH  065%=      5-min Rain = 0
KUM1 111421Z 21011KT 24/17 A3018 RMK A01 T02430173  RH  065%=      5-min Rain = 0
KUM1 111422Z 21010KT 24/17 A3018 RMK A01 T02440173  RH  065%=      5-min Rain = 0
KUM1 111423Z 21010KT 24/17 A3018 RMK A01 T02440173  RH  064%=      5-min Rain = 0
KUM1 111424Z 20009KT 25/18 A3018 RMK A01 T02460175  RH  065%=      5-min Rain = 0
KUM1 111425Z 20012KT 25/17 A3018 RMK A01 T02480173  RH  063%=      5-min Rain = 0
KUM1 111426Z 21011KT 25/17 A3018 RMK A01 T02470171  RH  063%=      5-min Rain = 0
KUM1 111427Z 21011KT 25/17 A3018 RMK A01 T02470171  RH  063%=      5-min Rain = 0
KUM1 111428Z 20011KT 25/17 A3018 RMK A01 T02480171  RH  062%=      5-min Rain = 0
KUM1 111429Z 21011KT 25/17 A3018 RMK A01 T02480171  RH  062%=      5-min Rain = 0
KUM1 111430Z 21010KT 25/17 A3018 RMK A01 T02490173  RH  063%=      5-min Rain = 0
KUM1 111431Z 21011KT 25/17 A3018 RMK A01 T02500170  RH  061%=      5-min Rain = 0
KUM1 111432Z 21011KT 25/17 A3018 RMK A01 T02510168  RH  060%=      5-min Rain = 0
KUM1 111433Z 21011KT 25/17 A3018 RMK A01 T02510169  RH  060%=      5-min Rain = 0
KUM1 111434Z 20011KT 25/17 A3018 RMK A01 T02510169  RH  060%=      5-min Rain = 0
KUM1 111435Z 20011KT 25/17 A3018 RMK A01 T02510170  RH  061%=      5-min Rain = 0
KUM1 111436Z 20008KT 25/17 A3018 RMK A01 T02500172  RH  062%=      5-min Rain = 0
KUM1 111437Z 19011KT 25/17 A3018 RMK A01 T02510174  RH  062%=      5-min Rain = 0
KUM1 111438Z 20012KT 25/17 A3018 RMK A01 T02530170  RH  060%=      5-min Rain = 0
KUM1 111439Z 20011KT 25/17 A3018 RMK A01 T02540165  RH  058%=      5-min Rain = 0
KUM1 111440Z 21011KT 25/16 A3018 RMK A01 T02540163  RH  057%=      5-min Rain = 0
KUM1 111441Z 20010KT 25/16 A3018 RMK A01 T02540163  RH  057%=      5-min Rain = 0
KUM1 111442Z 20011KT 26/16 A3018 RMK A01 T02550163  RH  057%=      5-min Rain = 0
KUM1 111443Z 20011KT 26/16 A3018 RMK A01 T02570162  RH  056%=      5-min Rain = 0
KUM1 111444Z 21011KT 26/16 A3018 RMK A01 T02560164  RH  057%=      5-min Rain = 0
KUM1 111445Z 21011KT 26/16 A3018 RMK A01 T02560163  RH  057%=      5-min Rain = 0
KUM1 111446Z 20011KT 26/16 A3018 RMK A01 T02570163  RH  056%=      5-min Rain = 0
KUM1 111447Z 20013KT 26/17 A3018 RMK A01 T02570165  RH  057%=      5-min Rain = 0
KUM1 111448Z 20011KT 26/17 A3018 RMK A01 T02560165  RH  057%=      5-min Rain = 0
KUM1 111449Z 21010KT 26/17 A3018 RMK A01 T02570165  RH  057%=      5-min Rain = 0
KUM1 111450Z 20011KT 26/17 A3018 RMK A01 T02570165  RH  057%=      5-min Rain = 0
KUM1 111451Z 19012KT 26/17 A3018 RMK A01 T02580165  RH  056%=      5-min Rain = 0
KUM1 111452Z 20011KT 26/16 A3018 RMK A01 T02590163  RH  056%=      5-min Rain = 0
KUM1 111453Z 20012KT 26/16 A3018 RMK A01 T02590162  RH  055%=      5-min Rain = 0
KUM1 111454Z 21009KT 26/16 A3018 RMK A01 T02590163  RH  055%=      5-min Rain = 0
KUM1 111455Z 20011KT 26/17 A3018 RMK A01 T02620165  RH  055%=      5-min Rain = 0
KUM1 111456Z 20010KT 26/17 A3018 RMK A01 T02620166  RH  055%=      5-min Rain = 0
KUM1 111457Z 21013KT 26/16 A3018 RMK A01 T02640164  RH  054%=      5-min Rain = 0
KUM1 111458Z 20011KT 26/16 A3018 RMK A01 T02640163  RH  054%=      5-min Rain = 0
KUM1 111459Z 20012KT 26/16 A3018 RMK A01 T02640164  RH  054%=      5-min Rain = 0
KUM1 111500Z 20010KT 27/16 A3018 RMK A01 T02650162  RH  053%=      5-min Rain = 0
KUM1 111501Z 21013KT 27/16 A3018 RMK A01 T02670162  RH  053%=      5-min Rain = 0
KUM1 111502Z 20011KT 27/16 A3018 RMK A01 T02680159  RH  051%=      5-min Rain = 0
KUM1 111503Z 20013KT 27/16 A3018 RMK A01 T02670159  RH  052%=      5-min Rain = 0
KUM1 111504Z 21014KT 27/16 A3018 RMK A01 T02670157  RH  051%=      5-min Rain = 0
KUM1 111505Z 22014KT 27/16 A3018 RMK A01 T02680156  RH  050%=      5-min Rain = 0
KUM1 111506Z 21013KT 27/16 A3018 RMK A01 T02680156  RH  050%=      5-min Rain = 0
KUM1 111507Z 20012KT 27/16 A3018 RMK A01 T02680155  RH  050%=      5-min Rain = 0
KUM1 111508Z 20012KT 27/16 A3018 RMK A01 T02670157  RH  051%=      5-min Rain = 0
KUM1 111509Z 21013KT 27/16 A3018 RMK A01 T02680157  RH  050%=      5-min Rain = 0
KUM1 111510Z 20011KT 27/16 A3018 RMK A01 T02700156  RH  050%=      5-min Rain = 0
KUM1 111511Z 20014G20KT 27/16 A3018 RMK A01 T02720160  RH  050%=      5-min Rain = 0
KUM1 111512Z 20017KT 28/15 A3018 RMK A01 T02750153  RH  047%=      5-min Rain = 0
KUM1 111513Z 20017KT 28/15 A3018 RMK A01 T02750151  RH  047%=      5-min Rain = 0
KUM1 111514Z 20013KT 27/15 A3018 RMK A01 T02740151  RH  047%=      5-min Rain = 0
KUM1 111515Z 21014KT 27/15 A3018 RMK A01 T02730152  RH  048%=      5-min Rain = 0
KUM1 111516Z 21015KT 27/15 A3017 RMK A01 T02710151  RH  048%=      5-min Rain = 0
KUM1 111517Z 20015KT 27/15 A3017 RMK A01 T02700150  RH  048%=      5-min Rain = 0
KUM1 111518Z 20013KT 27/15 A3018 RMK A01 T02720153  RH  048%=      5-min Rain = 0
KUM1 111519Z 19017KT 28/15 A3017 RMK A01 T02760148  RH  045%=      5-min Rain = 0
KUM1 111520Z 20013KT 28/15 A3018 RMK A01 T02750146  RH  045%=      5-min Rain = 0
KUM1 111521Z 19015KT 28/15 A3017 RMK A01 T02750147  RH  046%=      5-min Rain = 0
KUM1 111522Z 19017KT 27/15 A3017 RMK A01 T02740146  RH  045%=      5-min Rain = 0
KUM1 111523Z 20014KT 27/15 A3017 RMK A01 T02730146  RH  046%=      5-min Rain = 0
KUM1 111524Z 20014KT 27/15 A3017 RMK A01 T02720145  RH  046%=      5-min Rain = 0
KUM1 111525Z 20011KT 27/14 A3017 RMK A01 T02710144  RH  046%=      5-min Rain = 0
KUM1 111526Z 21014KT 27/15 A3017 RMK A01 T02700145  RH  046%=      5-min Rain = 0
KUM1 111527Z 21016KT 27/14 A3017 RMK A01 T02720143  RH  045%=      5-min Rain = 0
KUM1 111528Z 20013KT 27/15 A3018 RMK A01 T02720145  RH  046%=      5-min Rain = 0
KUM1 111529Z 20015KT 27/15 A3017 RMK A01 T02740148  RH  046%=      5-min Rain = 0
KUM1 111530Z 20012KT 28/15 A3017 RMK A01 T02760148  RH  045%=      5-min Rain = 0
KUM1 111531Z 20013G18KT 28/15 A3017 RMK A01 T02770147  RH  045%=      5-min Rain = 0
KUM1 111532Z 20013KT 28/15 A3017 RMK A01 T02760148  RH  046%=      5-min Rain = 0
KUM1 111533Z 20013KT 28/15 A3017 RMK A01 T02770147  RH  045%=      5-min Rain = 0
KUM1 111534Z 21011KT 28/15 A3017 RMK A01 T02760147  RH  045%=      5-min Rain = 0
KUM1 111535Z 20014KT 28/15 A3017 RMK A01 T02760150  RH  046%=      5-min Rain = 0
KUM1 111536Z 20013KT 28/15 A3017 RMK A01 T02770147  RH  045%=      5-min Rain = 0
KUM1 111537Z 21014KT 28/15 A3017 RMK A01 T02770147  RH  045%=      5-min Rain = 0
KUM1 111538Z 21013KT 28/15 A3017 RMK A01 T02760147  RH  045%=      5-min Rain = 0
KUM1 111539Z 20015KT 28/15 A3017 RMK A01 T02770148  RH  045%=      5-min Rain = 0
KUM1 111540Z 22014KT 28/15 A3017 RMK A01 T02790147  RH  044%=      5-min Rain = 0
KUM1 111541Z 21014KT 28/15 A3017 RMK A01 T02790149  RH  045%=      5-min Rain = 0
KUM1 111542Z 20014KT 28/15 A3017 RMK A01 T02790149  RH  045%=      5-min Rain = 0
KUM1 111543Z 20014KT 28/15 A3017 RMK A01 T02800149  RH  045%=      5-min Rain = 0
KUM1 111544Z 20012KT 28/15 A3017 RMK A01 T02820148  RH  044%=      5-min Rain = 0
KUM1 111545Z 21016KT 28/15 A3017 RMK A01 T02840149  RH  044%=      5-min Rain = 0
KUM1 111546Z 21013KT 28/15 A3017 RMK A01 T02830146  RH  043%=      5-min Rain = 0
KUM1 111547Z 21013KT 28/15 A3017 RMK A01 T02820145  RH  043%=      5-min Rain = 0
KUM1 111548Z 21015KT 28/15 A3017 RMK A01 T02810147  RH  044%=      5-min Rain = 0
KUM1 111549Z 20014KT 28/15 A3017 RMK A01 T02820146  RH  043%=      5-min Rain = 0
KUM1 111550Z 21012KT 28/15 A3017 RMK A01 T02810148  RH  044%=      5-min Rain = 0
KUM1 111551Z 20014KT 28/15 A3017 RMK A01 T02810148  RH  044%=      5-min Rain = 0
KUM1 111552Z 21015KT 28/15 A3017 RMK A01 T02830148  RH  044%=      5-min Rain = 0
KUM1 111553Z 20014KT 28/15 A3017 RMK A01 T02840147  RH  043%=      5-min Rain = 0
KUM1 111554Z 20015KT 28/15 A3017 RMK A01 T02830147  RH  043%=      5-min Rain = 0
KUM1 111555Z 19014G19KT 28/14 A3017 RMK A01 T02810144  RH  043%=      5-min Rain = 0
KUM1 111556Z 20014KT 28/14 A3017 RMK A01 T02810144  RH  043%=      5-min Rain = 0
KUM1 111557Z 20013KT 28/14 A3017 RMK A01 T02800142  RH  043%=      5-min Rain = 0
KUM1 111558Z 21015KT 28/14 A3017 RMK A01 T02800144  RH  043%=      5-min Rain = 0
KUM1 111559Z 21016KT 28/14 A3017 RMK A01 T02800143  RH  043%=      5-min Rain = 0
KUM1 111600Z 21014KT 28/15 A3017 RMK A01 T02800145  RH  044%=      5-min Rain = 0
KUM1 111601Z 21012KT 28/15 A3018 RMK A01 T02800145  RH  044%=      5-min Rain = 0
KUM1 111602Z 20014KT 28/15 A3017 RMK A01 T02800146  RH  044%=      5-min Rain = 0
KUM1 111603Z 19013KT 28/15 A3017 RMK A01 T02790147  RH  044%=      5-min Rain = 0
KUM1 111604Z 20013KT 28/15 A3017 RMK A01 T02810148  RH  044%=      5-min Rain = 0
KUM1 111605Z 20013KT 28/15 A3017 RMK A01 T02830148  RH  044%=      5-min Rain = 0
KUM1 111606Z 20013G19KT 28/15 A3017 RMK A01 T02810146  RH  044%=      5-min Rain = 0
KUM1 111607Z 20012KT 28/15 A3017 RMK A01 T02800147  RH  044%=      5-min Rain = 0
KUM1 111608Z 20012KT 28/15 A3017 RMK A01 T02810148  RH  044%=      5-min Rain = 0
KUM1 111609Z 20010KT 28/15 A3017 RMK A01 T02800147  RH  044%=      5-min Rain = 0
KUM1 111610Z 20014KT 28/15 A3017 RMK A01 T02780147  RH  045%=      5-min Rain = 0
KUM1 111611Z 18015KT 28/15 A3017 RMK A01 T02780147  RH  045%=      5-min Rain = 0
KUM1 111612Z 19013KT 28/15 A3017 RMK A01 T02770146  RH  045%=      5-min Rain = 0
KUM1 111613Z 19011KT 28/15 A3017 RMK A01 T02770148  RH  045%=      5-min Rain = 0
KUM1 111614Z 20015KT 28/15 A3017 RMK A01 T02790150  RH  045%=      5-min Rain = 0
KUM1 111615Z 20013KT 28/15 A3017 RMK A01 T02810149  RH  044%=      5-min Rain = 0
KUM1 111616Z 19012KT 28/15 A3018 RMK A01 T02820150  RH  045%=      5-min Rain = 0
KUM1 111617Z 20013KT 28/15 A3018 RMK A01 T02840149  RH  044%=      5-min Rain = 0
KUM1 111618Z 22013KT 28/15 A3018 RMK A01 T02840148  RH  043%=      5-min Rain = 0
KUM1 111619Z 21012KT 29/15 A3018 RMK A01 T02870148  RH  043%=      5-min Rain = 0
KUM1 111620Z 20013KT 29/15 A3018 RMK A01 T02880149  RH  043%=      5-min Rain = 0
KUM1 111621Z 21010KT 29/15 A3018 RMK A01 T02870148  RH  043%=      5-min Rain = 0
KUM1 111622Z 22012KT 29/15 A3017 RMK A01 T02860148  RH  043%=      5-min Rain = 0
KUM1 111623Z 22011KT 29/15 A3017 RMK A01 T02870148  RH  043%=      5-min Rain = 0
KUM1 111624Z 22011KT 29/15 A3017 RMK A01 T02860147  RH  043%=      5-min Rain = 0
KUM1 111625Z 21014KT 29/15 A3017 RMK A01 T02860146  RH  042%=      5-min Rain = 0
KUM1 111626Z 21014KT 29/15 A3017 RMK A01 T02860145  RH  042%=      5-min Rain = 0
KUM1 111627Z 22014KT 29/15 A3017 RMK A01 T02860145  RH  042%=      5-min Rain = 0
KUM1 111628Z 21013KT 29/15 A3017 RMK A01 T02850145  RH  042%=      5-min Rain = 0
KUM1 111629Z 19014KT 29/15 A3017 RMK A01 T02860148  RH  043%=      5-min Rain = 0
KUM1 111630Z 20011KT 29/15 A3017 RMK A01 T02860146  RH  042%=      5-min Rain = 0
KUM1 111631Z 19010KT 29/15 A3017 RMK A01 T02850149  RH  043%=      5-min Rain = 0
KUM1 111632Z 22008KT 29/15 A3017 RMK A01 T02910151  RH  042%=      5-min Rain = 0
KUM1 111633Z 21011KT 29/15 A3017 RMK A01 T02930148  RH  041%=      5-min Rain = 0
KUM1 111634Z 21012G18KT 29/15 A3017 RMK A01 T02920147  RH  041%=      5-min Rain = 0
KUM1 111635Z 21013KT 29/15 A3017 RMK A01 T02900146  RH  042%=      5-min Rain = 0
KUM1 111636Z 21015KT 29/15 A3017 RMK A01 T02920149  RH  042%=      5-min Rain = 0
KUM1 111637Z 22012KT 29/15 A3017 RMK A01 T02940148  RH  041%=      5-min Rain = 0
KUM1 111638Z 21011KT 30/15 A3017 RMK A01 T02950149  RH  041%=      5-min Rain = 0
KUM1 111639Z 19014KT 30/15 A3017 RMK A01 T02970151  RH  041%=      5-min Rain = 0
KUM1 111640Z 20015G20KT 30/15 A3017 RMK A01 T02970151  RH  041%=      5-min Rain = 0
KUM1 111641Z 21015KT 30/15 A3017 RMK A01 T02970150  RH  041%=      5-min Rain = 0
KUM1 111642Z 20014KT 30/15 A3017 RMK A01 T02970149  RH  040%=      5-min Rain = 0
KUM1 111643Z 21014KT 30/15 A3017 RMK A01 T02950148  RH  041%=      5-min Rain = 0
KUM1 111644Z 22013KT 29/15 A3017 RMK A01 T02930147  RH  041%=      5-min Rain = 0
KUM1 111645Z 21015KT 29/15 A3017 RMK A01 T02930146  RH  041%=      5-min Rain = 0
KUM1 111646Z 22014KT 29/15 A3017 RMK A01 T02940146  RH  041%=      5-min Rain = 0
KUM1 111647Z 21015KT 29/15 A3017 RMK A01 T02930146  RH  041%=      5-min Rain = 0
KUM1 111648Z 20014KT 29/15 A3017 RMK A01 T02930147  RH  041%=      5-min Rain = 0
KUM1 111649Z 21013KT 29/15 A3017 RMK A01 T02920147  RH  041%=      5-min Rain = 0
KUM1 111650Z 21011KT 29/15 A3017 RMK A01 T02900147  RH  042%=      5-min Rain = 0
KUM1 111651Z 21012KT 29/15 A3017 RMK A01 T02910147  RH  042%=      5-min Rain = 0
KUM1 111652Z 22012KT 29/15 A3017 RMK A01 T02880147  RH  042%=      5-min Rain = 0
KUM1 111653Z 20009KT 29/15 A3017 RMK A01 T02890150  RH  043%=      5-min Rain = 0
KUM1 111654Z 21010KT 29/15 A3017 RMK A01 T02920151  RH  042%=      5-min Rain = 0
KUM1 111655Z 21013KT 29/15 A3017 RMK A01 T02940151  RH  042%=      5-min Rain = 0
KUM1 111656Z 21016KT 30/15 A3017 RMK A01 T02950150  RH  041%=      5-min Rain = 0
KUM1 111657Z 20014KT 30/15 A3017 RMK A01 T02950148  RH  041%=      5-min Rain = 0
KUM1 111658Z 21009KT 29/15 A3017 RMK A01 T02930149  RH  041%=      5-min Rain = 0
KUM1 111659Z 22010KT 29/15 A3016 RMK A01 T02930148  RH  041%=      5-min Rain = 0
KUM1 111700Z 22011KT 29/15 A3016 RMK A01 T02900146  RH  041%=      5-min Rain = 0
KUM1 111701Z 21012KT 29/15 A3016 RMK A01 T02900149  RH  042%=      5-min Rain = 0
KUM1 111702Z 21014KT 29/15 A3016 RMK A01 T02930149  RH  042%=      5-min Rain = 0
KUM1 111703Z 20017KT 30/15 A3016 RMK A01 T02970151  RH  041%=      5-min Rain = 0
KUM1 111704Z 20014G19KT 30/15 A3017 RMK A01 T02990148  RH  040%=      5-min Rain = 0
KUM1 111705Z 20013KT 30/15 A3017 RMK A01 T02970148  RH  040%=      5-min Rain = 0
KUM1 111706Z 21011KT 29/14 A3017 RMK A01 T02940144  RH  040%=      5-min Rain = 0
KUM1 111707Z 22011KT 29/14 A3017 RMK A01 T02910144  RH  041%=      5-min Rain = 0
KUM1 111708Z 21016KT 29/15 A3017 RMK A01 T02900146  RH  041%=      5-min Rain = 0
KUM1 111709Z 20013KT 29/15 A3017 RMK A01 T02940146  RH  041%=      5-min Rain = 0
KUM1 111710Z 21012KT 30/15 A3017 RMK A01 T02950147  RH  041%=      5-min Rain = 0
KUM1 111711Z 22010G16KT 30/15 A3017 RMK A01 T02950145  RH  040%=      5-min Rain = 0
KUM1 111712Z 18013KT 30/15 A3017 RMK A01 T02970152  RH  041%=      5-min Rain = 0
KUM1 111713Z 17012KT 30/15 A3017 RMK A01 T03030148  RH  039%=      5-min Rain = 0
KUM1 111714Z 18012KT 30/14 A3017 RMK A01 T03010144  RH  039%=      5-min Rain = 0
KUM1 111715Z 16010KT 30/14 A3017 RMK A01 T02960142  RH  039%=      5-min Rain = 0
KUM1 111716Z 19013KT 29/15 A3017 RMK A01 T02930145  RH  041%=      5-min Rain = 0
KUM1 111717Z 18013KT 29/15 A3017 RMK A01 T02930147  RH  041%=      5-min Rain = 0
KUM1 111718Z 19011G18KT 30/15 A3017 RMK A01 T02950147  RH  041%=      5-min Rain = 0
KUM1 111719Z 19014KT 30/15 A3017 RMK A01 T02950145  RH  040%=      5-min Rain = 0
KUM1 111720Z 19014KT 30/15 A3017 RMK A01 T02950146  RH  040%=      5-min Rain = 0
KUM1 111721Z 18011KT 30/15 A3017 RMK A01 T02960146  RH  040%=      5-min Rain = 0
KUM1 111722Z 18009G15KT 30/15 A3017 RMK A01 T02970146  RH  040%=      5-min Rain = 0
KUM1 111723Z 17011KT 30/15 A3017 RMK A01 T02970150  RH  041%=      5-min Rain = 0
KUM1 111724Z 17013KT 30/15 A3017 RMK A01 T03010150  RH  040%=      5-min Rain = 0
KUM1 111725Z 18013KT 30/15 A3016 RMK A01 T03020149  RH  039%=      5-min Rain = 0
KUM1 111726Z 18012KT 30/15 A3016 RMK A01 T03010148  RH  039%=      5-min Rain = 0
KUM1 111727Z 18012KT 30/15 A3016 RMK A01 T03020148  RH  039%=      5-min Rain = 0
KUM1 111728Z 18010KT 30/15 A3016 RMK A01 T03020146  RH  039%=      5-min Rain = 0
KUM1 111729Z 21008G13KT 30/15 A3016 RMK A01 T02990145  RH  039%=      5-min Rain = 0
KUM1 111730Z 20011KT 30/15 A3016 RMK A01 T02980145  RH  039%=      5-min Rain = 0
KUM1 111731Z 21010KT 30/14 A3016 RMK A01 T02980144  RH  039%=      5-min Rain = 0
KUM1 111732Z 23013G19KT 30/14 A3016 RMK A01 T02970144  RH  039%=      5-min Rain = 0
KUM1 111733Z 22016KT 30/14 A3016 RMK A01 T02970143  RH  039%=      5-min Rain = 0
KUM1 111734Z 20016G21KT 30/14 A3016 RMK A01 T02970143  RH  039%=      5-min Rain = 0
KUM1 111735Z 20016KT 30/14 A3016 RMK A01 T02970143  RH  039%=      5-min Rain = 0
KUM1 111736Z 19014KT 30/14 A3016 RMK A01 T02960140  RH  039%=      5-min Rain = 0
KUM1 111737Z 18008KT 29/14 A3016 RMK A01 T02920140  RH  039%=      5-min Rain = 0
KUM1 111738Z 19012G17KT 29/14 A3016 RMK A01 T02900141  RH  040%=      5-min Rain = 0
KUM1 111739Z 19014KT 29/14 A3016 RMK A01 T02900141  RH  040%=      5-min Rain = 0
KUM1 111740Z 19012KT 29/14 A3016 RMK A01 T02910142  RH  040%=      5-min Rain = 0
KUM1 111741Z 18012KT 29/14 A3016 RMK A01 T02920144  RH  040%=      5-min Rain = 0
KUM1 111742Z 20013KT 29/14 A3016 RMK A01 T02930142  RH  040%=      5-min Rain = 0
KUM1 111743Z 21015KT 29/14 A3016 RMK A01 T02940140  RH  039%=      5-min Rain = 0
KUM1 111744Z 19014KT 30/14 A3016 RMK A01 T02950140  RH  039%=      5-min Rain = 0
KUM1 111745Z 20013KT 30/14 A3016 RMK A01 T02960140  RH  039%=      5-min Rain = 0
KUM1 111746Z 21013KT 30/14 A3015 RMK A01 T02970139  RH  038%=      5-min Rain = 0
KUM1 111747Z 20012KT 30/14 A3015 RMK A01 T03010140  RH  037%=      5-min Rain = 0
KUM1 111748Z 20015KT 30/14 A3015 RMK A01 T03030141  RH  037%=      5-min Rain = 0
KUM1 111749Z 19018KT 31/14 A3015 RMK A01 T03080143  RH  037%=      5-min Rain = 0
KUM1 111750Z 18017KT 31/14 A3015 RMK A01 T03070139  RH  036%=      5-min Rain = 0
KUM1 111751Z 19016KT 30/14 A3015 RMK A01 T03030138  RH  037%=      5-min Rain = 0
KUM1 111752Z 18016KT 30/14 A3015 RMK A01 T03000139  RH  037%=      5-min Rain = 0
KUM1 111753Z 19016KT 30/14 A3015 RMK A01 T02990136  RH  037%=      5-min Rain = 0
KUM1 111754Z 20012KT 30/13 A3015 RMK A01 T02980134  RH  037%=      5-min Rain = 0
KUM1 111755Z 20012KT 30/14 A3015 RMK A01 T02980136  RH  037%=      5-min Rain = 0
KUM1 111756Z 19014KT 30/14 A3015 RMK A01 T03000138  RH  037%=      5-min Rain = 0
KUM1 111757Z 18011G16KT 30/14 A3015 RMK A01 T02990139  RH  038%=      5-min Rain = 0
KUM1 111758Z 19009KT 30/14 A3015 RMK A01 T02960138  RH  038%=      5-min Rain = 0
KUM1 111759Z 21012KT 30/14 A3015 RMK A01 T02960143  RH  039%=      5-min Rain = 0
KUM1 111800Z 21015KT 30/14 A3015 RMK A01 T03000142  RH  038%=      5-min Rain = 0
KUM1 111801Z 18013KT 30/14 A3015 RMK A01 T03000141  RH  038%=      5-min Rain = 0
KUM1 111802Z 18011KT 30/14 A3015 RMK A01 T02990140  RH  038%=      5-min Rain = 0
KUM1 111803Z 18009KT 30/14 A3015 RMK A01 T02970142  RH  039%=      5-min Rain = 0
KUM1 111804Z 18016KT 30/14 A3015 RMK A01 T03000138  RH  037%=      5-min Rain = 0
KUM1 111805Z 18013KT 30/13 A3015 RMK A01 T03020134  RH  036%=      5-min Rain = 0
KUM1 111806Z 17017KT 30/13 A3015 RMK A01 T03040134  RH  035%=      5-min Rain = 0
KUM1 111807Z 17016KT 31/13 A3015 RMK A01 T03070128  RH  034%=      5-min Rain = 0
KUM1 111808Z 17015KT 31/13 A3015 RMK A01 T03050130  RH  034%=      5-min Rain = 0
KUM1 111809Z 17013KT 31/13 A3015 RMK A01 T03050131  RH  035%=      5-min Rain = 0
KUM1 111810Z 18011KT 31/13 A3015 RMK A01 T03050131  RH  034%=      5-min Rain = 0
KUM1 111811Z 17012KT 30/14 A3015 RMK A01 T03040135  RH  036%=      5-min Rain = 0
KUM1 111812Z 18017G22KT 31/14 A3015 RMK A01 T03050137  RH  036%=      5-min Rain = 0
KUM1 111813Z 18013KT 31/13 A3015 RMK A01 T03070134  RH  035%=      5-min Rain = 0
KUM1 111814Z 18011KT 31/13 A3015 RMK A01 T03050134  RH  035%=      5-min Rain = 0
KUM1 111815Z 18015KT 30/14 A3015 RMK A01 T03030136  RH  036%=      5-min Rain = 0
KUM1 111816Z 16016KT 31/14 A3015 RMK A01 T03050142  RH  037%=      5-min Rain = 0
KUM1 111817Z 15013KT 31/14 A3015 RMK A01 T03060143  RH  037%=      5-min Rain = 0
KUM1 111818Z 15013G18KT 31/14 A3014 RMK A01 T03050144  RH  038%=      5-min Rain = 0
KUM1 111819Z 19017KT 31/14 A3014 RMK A01 T03060143  RH  037%=      5-min Rain = 0
KUM1 111820Z 19016G21KT 31/14 A3014 RMK A01 T03090138  RH  035%=      5-min Rain = 0
KUM1 111821Z 19015G22KT 31/14 A3014 RMK A01 T03100143  RH  036%=      5-min Rain = 0
KUM1 111822Z 19013KT 31/14 A3014 RMK A01 T03110140  RH  035%=      5-min Rain = 0
KUM1 111823Z 20017G23KT 31/14 A3014 RMK A01 T03090141  RH  036%=      5-min Rain = 0
KUM1 111824Z 19017KT 31/14 A3014 RMK A01 T03090140  RH  036%=      5-min Rain = 0
KUM1 111825Z 20019KT 31/14 A3014 RMK A01 T03070139  RH  036%=      5-min Rain = 0
KUM1 111826Z 20017KT 30/14 A3015 RMK A01 T03040138  RH  036%=      5-min Rain = 0
KUM1 111827Z 20014KT 30/14 A3015 RMK A01 T03040139  RH  037%=      5-min Rain = 0
KUM1 111828Z 18012KT 30/14 A3015 RMK A01 T03040140  RH  037%=      5-min Rain = 0
KUM1 111829Z 18012KT 31/14 A3014 RMK A01 T03050141  RH  037%=      5-min Rain = 0
KUM1 111830Z 21017KT 31/14 A3014 RMK A01 T03060140  RH  036%=      5-min Rain = 0
KUM1 111831Z 20019KT 31/14 A3014 RMK A01 T03070140  RH  036%=      5-min Rain = 0
KUM1 111832Z 20014G20KT 31/14 A3014 RMK A01 T03070139  RH  036%=      5-min Rain = 0
KUM1 111833Z 19012KT 31/14 A3014 RMK A01 T03060138  RH  036%=      5-min Rain = 0
KUM1 111834Z 21010KT 31/14 A3014 RMK A01 T03060141  RH  037%=      5-min Rain = 0
KUM1 111835Z 20012KT 31/14 A3014 RMK A01 T03070139  RH  036%=      5-min Rain = 0
KUM1 111836Z 19011G17KT 31/14 A3014 RMK A01 T03080141  RH  036%=      5-min Rain = 0
KUM1 111837Z 19018KT 31/14 A3014 RMK A01 T03110140  RH  036%=      5-min Rain = 0
KUM1 111838Z 17015KT 31/14 A3014 RMK A01 T03100135  RH  034%=      5-min Rain = 0
KUM1 111839Z 16015KT 31/14 A3014 RMK A01 T03080138  RH  035%=      5-min Rain = 0
KUM1 111840Z 17014KT 31/14 A3014 RMK A01 T03070137  RH  035%=      5-min Rain = 0
KUM1 111841Z 17014KT 31/14 A3014 RMK A01 T03050136  RH  036%=      5-min Rain = 0
KUM1 111842Z 17016KT 30/14 A3014 RMK A01 T03040137  RH  036%=      5-min Rain = 0
KUM1 111843Z 18014KT 30/14 A3014 RMK A01 T03040139  RH  036%=      5-min Rain = 0
KUM1 111844Z 17019KT 31/14 A3014 RMK A01 T03070141  RH  037%=      5-min Rain = 0
KUM1 111845Z 18015KT 31/14 A3014 RMK A01 T03080141  RH  036%=      5-min Rain = 0
KUM1 111846Z 18014KT 31/14 A3014 RMK A01 T03070142  RH  037%=      5-min Rain = 0
KUM1 111847Z 18013KT 31/14 A3014 RMK A01 T03070142  RH  036%=      5-min Rain = 0
KUM1 111848Z 18014KT 31/14 A3014 RMK A01 T03080142  RH  037%=      5-min Rain = 0
KUM1 111849Z 20014KT 31/14 A3014 RMK A01 T03090143  RH  036%=      5-min Rain = 0
KUM1 111850Z 20015KT 31/14 A3013 RMK A01 T03110141  RH  036%=      5-min Rain = 0
KUM1 111851Z 20013KT 31/14 A3013 RMK A01 T03110142  RH  036%=      5-min Rain = 0
KUM1 111852Z 20017KT 31/14 A3013 RMK A01 T03140143  RH  036%=      5-min Rain = 0
KUM1 111853Z 20016KT 32/14 A3013 RMK A01 T03160142  RH  035%=      5-min Rain = 0
KUM1 111854Z 19012KT 32/14 A3013 RMK A01 T03160143  RH  035%=      5-min Rain = 0
KUM1 111855Z 20014KT 31/14 A3013 RMK A01 T03140144  RH  036%=      5-min Rain = 0
KUM1 111856Z 21015KT 31/14 A3013 RMK A01 T03120143  RH  036%=      5-min Rain = 0
KUM1 111857Z 21010KT 31/14 A3013 RMK A01 T03090141  RH  036%=      5-min Rain = 0
KUM1 111858Z 20013KT 31/14 A3013 RMK A01 T03070143  RH  037%=      5-min Rain = 0
KUM1 111859Z 19018KT 31/14 A3013 RMK A01 T03120144  RH  036%=      5-min Rain = 0
KUM1 111900Z 18020KT 32/14 A3013 RMK A01 T03150144  RH  035%=      5-min Rain = 0
KUM1 111901Z 19014KT 31/14 A3013 RMK A01 T03130144  RH  036%=      5-min Rain = 0
KUM1 111902Z 17013KT 31/14 A3013 RMK A01 T03110142  RH  036%=      5-min Rain = 0
KUM1 111903Z 16011KT 31/15 A3013 RMK A01 T03080146  RH  037%=      5-min Rain = 0
KUM1 111904Z 17012G20KT 31/15 A3013 RMK A01 T03080145  RH  037%=      5-min Rain = 0
KUM1 111905Z 17018KT 31/15 A3013 RMK A01 T03090145  RH  037%=      5-min Rain = 0
KUM1 111906Z 17018G25KT 31/14 A3013 RMK A01 T03120144  RH  036%=      5-min Rain = 0
KUM1 111907Z 17016KT 31/15 A3013 RMK A01 T03120145  RH  036%=      5-min Rain = 0
KUM1 111908Z 19012KT 31/14 A3013 RMK A01 T03110144  RH  036%=      5-min Rain = 0
KUM1 111909Z 20014KT 31/15 A3013 RMK A01 T03130145  RH  036%=      5-min Rain = 0
KUM1 111910Z 20012KT 32/14 A3013 RMK A01 T03170144  RH  035%=      5-min Rain = 0
KUM1 111911Z 19011KT 32/14 A3013 RMK A01 T03170143  RH  035%=      5-min Rain = 0
KUM1 111912Z 19014KT 32/15 A3013 RMK A01 T03150145  RH  036%=      5-min Rain = 0
KUM1 111913Z 19015KT 32/14 A3013 RMK A01 T03150144  RH  035%=      5-min Rain = 0
KUM1 111914Z 21011KT 31/14 A3013 RMK A01 T03130142  RH  035%=      5-min Rain = 0
KUM1 111915Z 20012KT 31/14 A3013 RMK A01 T03120143  RH  036%=      5-min Rain = 0
KUM1 111916Z 20014KT 32/14 A3013 RMK A01 T03150144  RH  036%=      5-min Rain = 0
KUM1 111917Z 18019KT 32/14 A3012 RMK A01 T03150139  RH  034%=      5-min Rain = 0
KUM1 111918Z 16017KT 31/14 A3012 RMK A01 T03110138  RH  035%=      5-min Rain = 0
KUM1 111919Z 18017KT 31/14 A3012 RMK A01 T03120140  RH  035%=      5-min Rain = 0
KUM1 111920Z 19016KT 31/14 A3012 RMK A01 T03140139  RH  035%=      5-min Rain = 0
KUM1 111921Z 17015G22KT 31/14 A3012 RMK A01 T03140140  RH  035%=      5-min Rain = 0
KUM1 111922Z 16019KT 31/14 A3012 RMK A01 T03140143  RH  035%=      5-min Rain = 0
KUM1 111923Z 16018KT 31/15 A3012 RMK A01 T03140145  RH  036%=      5-min Rain = 0
KUM1 111924Z 17013KT 31/14 A3012 RMK A01 T03140144  RH  036%=      5-min Rain = 0
KUM1 111925Z 17013G19KT 31/15 A3012 RMK A01 T03140148  RH  037%=      5-min Rain = 0
KUM1 111926Z 17013KT 32/14 A3012 RMK A01 T03160144  RH  035%=      5-min Rain = 0
KUM1 111927Z 18009KT 32/14 A3012 RMK A01 T03150144  RH  035%=      5-min Rain = 0
KUM1 111928Z 19011G18KT 31/15 A3012 RMK A01 T03140147  RH  036%=      5-min Rain = 0
KUM1 111929Z 20015KT 32/15 A3012 RMK A01 T03200147  RH  035%=      5-min Rain = 0
KUM1 111930Z 21012KT 32/14 A3012 RMK A01 T03200142  RH  034%=      5-min Rain = 0
KUM1 111931Z 22010KT 32/14 A3012 RMK A01 T03160142  RH  035%=      5-min Rain = 0
KUM1 111932Z 19012KT 32/14 A3012 RMK A01 T03180144  RH  035%=      5-min Rain = 0
KUM1 111933Z 16013KT 32/14 A3012 RMK A01 T03180144  RH  035%=      5-min Rain = 0
KUM1 111934Z 16014KT 32/14 A3012 RMK A01 T03170143  RH  035%=      5-min Rain = 0
KUM1 111935Z 17014KT 32/14 A3012 RMK A01 T03150142  RH  035%=      5-min Rain = 0
KUM1 111936Z 18017KT 32/14 A3012 RMK A01 T03170143  RH  035%=      5-min Rain = 0
KUM1 111937Z 19019KT 32/14 A3012 RMK A01 T03190140  RH  034%=      5-min Rain = 0
KUM1 111938Z 18016G21KT 32/14 A3012 RMK A01 T03180139  RH  034%=      5-min Rain = 0
KUM1 111939Z 19013KT 32/14 A3012 RMK A01 T03170142  RH  035%=      5-min Rain = 0
KUM1 111940Z 21012KT 32/14 A3011 RMK A01 T03180138  RH  034%=      5-min Rain = 0
KUM1 111941Z 21011KT 31/14 A3011 RMK A01 T03140136  RH  034%=      5-min Rain = 0
KUM1 111942Z 18013G21KT 31/14 A3011 RMK A01 T03110137  RH  035%=      5-min Rain = 0
KUM1 111943Z 18016KT 31/14 A3011 RMK A01 T03100137  RH  035%=      5-min Rain = 0
KUM1 111944Z 19014KT 31/14 A3011 RMK A01 T03090139  RH  036%=      5-min Rain = 0
KUM1 111945Z 20015KT 31/14 A3011 RMK A01 T03120140  RH  035%=      5-min Rain = 0
KUM1 111946Z 21013KT 32/14 A3011 RMK A01 T03170142  RH  034%=      5-min Rain = 0
KUM1 111947Z 19014G20KT 32/14 A3011 RMK A01 T03170139  RH  034%=      5-min Rain = 0
KUM1 111948Z 19015KT 32/15 A3011 RMK A01 T03190145  RH  035%=      5-min Rain = 0
KUM1 111949Z 18015G20KT 33/14 A3011 RMK A01 T03260144  RH  033%=      5-min Rain = 0
KUM1 111950Z 18018G23KT 32/14 A3011 RMK A01 T03220140  RH  033%=      5-min Rain = 0
KUM1 111951Z 16016KT 32/14 A3011 RMK A01 T03180139  RH  034%=      5-min Rain = 0
KUM1 111952Z 16012KT 31/14 A3011 RMK A01 T03130140  RH  035%=      5-min Rain = 0
KUM1 111953Z 18011KT 31/14 A3011 RMK A01 T03120141  RH  035%=      5-min Rain = 0
KUM1 111954Z 15008KT 31/14 A3011 RMK A01 T03130143  RH  036%=      5-min Rain = 0
KUM1 111955Z 18010G15KT 31/15 A3011 RMK A01 T03140148  RH  037%=      5-min Rain = 0
KUM1 111956Z 18016G23KT 32/15 A3011 RMK A01 T03190146  RH  035%=      5-min Rain = 0
KUM1 111957Z 17015KT 32/14 A3011 RMK A01 T03240144  RH  034%=      5-min Rain = 0
KUM1 111958Z 19015KT 32/14 A3011 RMK A01 T03240142  RH  033%=      5-min Rain = 0
KUM1 111959Z 18014KT 32/14 A301 RMK A01 T03210140  RH  033%=      5-min Rain = 0
KUM1 112000Z 19012KT 32/14 A301 RMK A01 T03190140  RH  034%=      5-min Rain = 0
KUM1 112001Z 18011KT 32/14 A301 RMK A01 T03170140  RH  034%=      5-min Rain = 0
KUM1 112002Z 16015G22KT 32/14 A301 RMK A01 T03170142  RH  035%=      5-min Rain = 0
KUM1 112003Z 17019KT 32/14 A301 RMK A01 T03180143  RH  035%=      5-min Rain = 0
KUM1 112004Z 16018KT 32/14 A301 RMK A01 T03180142  RH  034%=      5-min Rain = 0
KUM1 112005Z 16017KT 32/14 A301 RMK A01 T03160141  RH  035%=      5-min Rain = 0
KUM1 112006Z 16016KT 31/14 A301 RMK A01 T03130141  RH  035%=      5-min Rain = 0
KUM1 112007Z 16013KT 31/15 A301 RMK A01 T03130147  RH  036%=      5-min Rain = 0
KUM1 112008Z 18016G22KT 32/15 A301 RMK A01 T03180147  RH  036%=      5-min Rain = 0
KUM1 112009Z 18018G24KT 33/14 A301 RMK A01 T03250143  RH  033%=      5-min Rain = 0
KUM1 112010Z 17015KT 32/14 A301 RMK A01 T03230141  RH  033%=      5-min Rain = 0
KUM1 112011Z 17018KT 32/14 A301 RMK A01 T03210141  RH  034%=      5-min Rain = 0
KUM1 112012Z 17013KT 32/14 A301 RMK A01 T03190139  RH  034%=      5-min Rain = 0
KUM1 112013Z 16013KT 32/14 A301 RMK A01 T03170137  RH  034%=      5-min Rain = 0
KUM1 112014Z 16015KT 32/14 A301 RMK A01 T03160141  RH  035%=      5-min Rain = 0
KUM1 112015Z 16013KT 32/14 A301 RMK A01 T03150140  RH  035%=      5-min Rain = 0
KUM1 112016Z 18015KT 31/14 A3009 RMK A01 T03130139  RH  035%=      5-min Rain = 0
KUM1 112017Z 19014KT 31/14 A301 RMK A01 T03140141  RH  035%=      5-min Rain = 0
KUM1 112018Z 18012KT 32/15 A301 RMK A01 T03200145  RH  035%=      5-min Rain = 0
KUM1 112019Z 17018KT 32/14 A3009 RMK A01 T03220142  RH  034%=      5-min Rain = 0
KUM1 112020Z 16018KT 32/14 A3009 RMK A01 T03210143  RH  034%=      5-min Rain = 0
KUM1 112021Z 16017KT 32/14 A3009 RMK A01 T03220144  RH  034%=      5-min Rain = 0
KUM1 112022Z 17018KT 32/14 A3009 RMK A01 T03240141  RH  033%=      5-min Rain = 0
KUM1 112023Z 17017KT 32/14 A301 RMK A01 T03240142  RH  033%=      5-min Rain = 0
KUM1 112024Z 17015KT 32/14 A3009 RMK A01 T03220140  RH  033%=      5-min Rain = 0
KUM1 112025Z 17013KT 32/14 A3009 RMK A01 T03160139  RH  034%=      5-min Rain = 0
KUM1 112026Z 17013KT 31/14 A3009 RMK A01 T03120139  RH  035%=      5-min Rain = 0
KUM1 112027Z 17016G22KT 31/14 A3009 RMK A01 T03110139  RH  035%=      5-min Rain = 0
KUM1 112028Z 17012KT 31/14 A3009 RMK A01 T03110140  RH  035%=      5-min Rain = 0
KUM1 112029Z 17018KT 31/15 A3009 RMK A01 T03130145  RH  036%=      5-min Rain = 0
KUM1 112030Z 16022KT 32/14 A3009 RMK A01 T03180144  RH  035%=      5-min Rain = 0
KUM1 112031Z 16018G24KT 32/14 A3009 RMK A01 T03170142  RH  035%=      5-min Rain = 0
KUM1 112032Z 17018KT 32/14 A3009 RMK A01 T03150141  RH  035%=      5-min Rain = 0
KUM1 112033Z 17015G20KT 31/14 A3009 RMK A01 T03140142  RH  035%=      5-min Rain = 0
KUM1 112034Z 17013KT 32/14 A3009 RMK A01 T03170144  RH  035%=      5-min Rain = 0
KUM1 112035Z 17014KT 32/14 A3009 RMK A01 T03180142  RH  035%=      5-min Rain = 0
KUM1 112036Z 16014KT 32/15 A3009 RMK A01 T03170145  RH  035%=      5-min Rain = 0
KUM1 112037Z 17019KT 32/15 A3009 RMK A01 T03190147  RH  035%=      5-min Rain = 0
KUM1 112038Z 18016KT 32/15 A3009 RMK A01 T03200145  RH  035%=      5-min Rain = 0
KUM1 112039Z 17020KT 32/14 A3009 RMK A01 T03200143  RH  034%=      5-min Rain = 0
KUM1 112040Z 18018G23KT 32/14 A3009 RMK A01 T03180142  RH  034%=      5-min Rain = 0
KUM1 112041Z 17017KT 32/14 A3009 RMK A01 T03170140  RH  034%=      5-min Rain = 0
KUM1 112042Z 16016KT 32/14 A3009 RMK A01 T03160140  RH  034%=      5-min Rain = 0
KUM1 112043Z 16018KT 32/14 A3009 RMK A01 T03150142  RH  035%=      5-min Rain = 0
KUM1 112044Z 17019G25KT 32/14 A3008 RMK A01 T03160142  RH  035%=      5-min Rain = 0
KUM1 112045Z 18018KT 32/14 A3008 RMK A01 T03190143  RH  034%=      5-min Rain = 0
KUM1 112046Z 18020KT 32/14 A3008 RMK A01 T03200142  RH  034%=      5-min Rain = 0
KUM1 112047Z 18019KT 32/14 A3008 RMK A01 T03190141  RH  034%=      5-min Rain = 0
KUM1 112048Z 19018KT 32/14 A3008 RMK A01 T03210142  RH  034%=      5-min Rain = 0
KUM1 112049Z 18017G25KT 32/14 A3008 RMK A01 T03230143  RH  034%=      5-min Rain = 0
KUM1 112050Z 19013KT 32/14 A3008 RMK A01 T03230143  RH  034%=      5-min Rain = 0
KUM1 112051Z 19018KT 33/14 A3008 RMK A01 T03250143  RH  033%=      5-min Rain = 0
KUM1 112052Z 18021KT 33/14 A3008 RMK A01 T03260143  RH  033%=      5-min Rain = 0
KUM1 112053Z 18019KT 33/15 A3008 RMK A01 T03250145  RH  034%=      5-min Rain = 0
KUM1 112054Z 17020KT 33/15 A3008 RMK A01 T03270146  RH  033%=      5-min Rain = 0
KUM1 112055Z 16019KT 33/15 A3008 RMK A01 T03270146  RH  033%=      5-min Rain = 0
KUM1 112056Z 16018KT 33/15 A3008 RMK A01 T03250146  RH  034%=      5-min Rain = 0
KUM1 112057Z 15015KT 32/15 A3008 RMK A01 T03220145  RH  034%=      5-min Rain = 0
KUM1 112058Z 15017KT 32/15 A3008 RMK A01 T03220149  RH  035%=      5-min Rain = 0
KUM1 112059Z 15014KT 32/15 A3008 RMK A01 T03230147  RH  034%=      5-min Rain = 0
KUM1 112100Z 19017KT 32/14 A3008 RMK A01 T03230143  RH  034%=      5-min Rain = 0
KUM1 112101Z 19017KT 33/14 A3008 RMK A01 T03260141  RH  033%=      5-min Rain = 0
KUM1 112102Z 19017KT 33/14 A3008 RMK A01 T03290141  RH  032%=      5-min Rain = 0
KUM1 112103Z 20015KT 33/14 A3008 RMK A01 T03280139  RH  032%=      5-min Rain = 0
KUM1 112104Z 18016KT 33/14 A3007 RMK A01 T03270141  RH  032%=      5-min Rain = 0
KUM1 112105Z 15014KT 33/15 A3008 RMK A01 T03270147  RH  034%=      5-min Rain = 0
KUM1 112106Z 15016KT 33/15 A3007 RMK A01 T03280148  RH  034%=      5-min Rain = 0
KUM1 112107Z 14018KT 33/15 A3007 RMK A01 T03280147  RH  033%=      5-min Rain = 0
KUM1 112108Z 17018KT 33/15 A3007 RMK A01 T03280146  RH  033%=      5-min Rain = 0
KUM1 112109Z 18018KT 33/14 A3007 RMK A01 T03300143  RH  032%=      5-min Rain = 0
KUM1 112110Z 17018G24KT 33/15 A3007 RMK A01 T03310147  RH  033%=      5-min Rain = 0
KUM1 112111Z 18019KT 33/14 A3007 RMK A01 T03330143  RH  032%=      5-min Rain = 0
KUM1 112112Z 18019KT 33/14 A3007 RMK A01 T03300141  RH  032%=      5-min Rain = 0
KUM1 112113Z 19016KT 33/14 A3007 RMK A01 T03300143  RH  032%=      5-min Rain = 0
KUM1 112114Z 18015KT 33/14 A3007 RMK A01 T03300142  RH  032%=      5-min Rain = 0
KUM1 112115Z 17015KT 33/14 A3007 RMK A01 T03290143  RH  032%=      5-min Rain = 0
KUM1 112116Z 15013G23KT 33/14 A3007 RMK A01 T03300144  RH  033%=      5-min Rain = 0
KUM1 112117Z 17020G25KT 33/14 A3007 RMK A01 T03300144  RH  033%=      5-min Rain = 0
KUM1 112118Z 18015KT 33/14 A3007 RMK A01 T03320140  RH  031%=      5-min Rain = 0
KUM1 112119Z 17016KT 33/14 A3007 RMK A01 T03340143  RH  032%=      5-min Rain = 0
KUM1 112120Z 15015KT 33/15 A3007 RMK A01 T03320145  RH  032%=      5-min Rain = 0
KUM1 112121Z 17013G18KT 33/14 A3007 RMK A01 T03300144  RH  033%=      5-min Rain = 0
KUM1 112122Z 18013KT 33/14 A3007 RMK A01 T03300139  RH  032%=      5-min Rain = 0
KUM1 112123Z 18015KT 33/14 A3007 RMK A01 T03320139  RH  031%=      5-min Rain = 0
KUM1 112124Z 16014KT 33/14 A3006 RMK A01 T03300143  RH  032%=      5-min Rain = 0
KUM1 112125Z 17019KT 33/15 A3006 RMK A01 T03310145  RH  033%=      5-min Rain = 0
KUM1 112126Z 17018KT 33/14 A3006 RMK A01 T03330141  RH  032%=      5-min Rain = 0
KUM1 112127Z 18018KT 33/14 A3006 RMK A01 T03300141  RH  032%=      5-min Rain = 0
KUM1 112128Z 20019KT 33/14 A3006 RMK A01 T03290141  RH  032%=      5-min Rain = 0
KUM1 112129Z 19018KT 33/14 A3006 RMK A01 T03300140  RH  032%=      5-min Rain = 0
KUM1 112130Z 19015KT 33/14 A3006 RMK A01 T03300140  RH  032%=      5-min Rain = 0
KUM1 112131Z 18016KT 33/14 A3006 RMK A01 T03300142  RH  032%=      5-min Rain = 0
KUM1 112132Z 17019KT 33/14 A3006 RMK A01 T03320143  RH  032%=      5-min Rain = 0
KUM1 112133Z 17017G25KT 33/14 A3006 RMK A01 T03340142  RH  031%=      5-min Rain = 0
KUM1 112134Z 19016KT 34/15 A3006 RMK A01 T03350148  RH  032%=      5-min Rain = 0
KUM1 112135Z 18016G21KT 33/15 A3006 RMK A01 T03340146  RH  032%=      5-min Rain = 0
KUM1 112136Z 18018KT 34/15 A3006 RMK A01 T03360145  RH  032%=      5-min Rain = 0
KUM1 112137Z 18016KT 33/14 A3006 RMK A01 T03330142  RH  031%=      5-min Rain = 0
KUM1 112138Z 20013KT 33/14 A3006 RMK A01 T03280144  RH  033%=      5-min Rain = 0
KUM1 112139Z 20015KT 33/14 A3006 RMK A01 T03290144  RH  033%=      5-min Rain = 0
KUM1 112140Z 17017G23KT 33/14 A3006 RMK A01 T03280143  RH  033%=      5-min Rain = 0
KUM1 112141Z 17019KT 33/14 A3006 RMK A01 T03270141  RH  033%=      5-min Rain = 0
KUM1 112142Z 17018KT 32/14 A3006 RMK A01 T03230140  RH  033%=      5-min Rain = 0
KUM1 112143Z 16015KT 32/14 A3006 RMK A01 T03220140  RH  033%=      5-min Rain = 0
KUM1 112144Z 15015G20KT 32/14 A3006 RMK A01 T03200141  RH  034%=      5-min Rain = 0
KUM1 112145Z 16017KT 32/14 A3006 RMK A01 T03240144  RH  034%=      5-min Rain = 0
KUM1 112146Z 17018G23KT 33/14 A3006 RMK A01 T03280142  RH  033%=      5-min Rain = 0
KUM1 112147Z 18016KT 33/14 A3006 RMK A01 T03290141  RH  032%=      5-min Rain = 0
KUM1 112148Z 18017KT 33/14 A3006 RMK A01 T03280142  RH  032%=      5-min Rain = 0
KUM1 112149Z 19013KT 33/14 A3006 RMK A01 T03280143  RH  033%=      5-min Rain = 0
KUM1 112150Z 20018G23KT 33/14 A3006 RMK A01 T03290141  RH  032%=      5-min Rain = 0
KUM1 112151Z 20014KT 33/14 A3006 RMK A01 T03250139  RH  032%=      5-min Rain = 0
KUM1 112152Z 19013KT 32/14 A3006 RMK A01 T03230140  RH  033%=      5-min Rain = 0
KUM1 112153Z 19015KT 33/14 A3006 RMK A01 T03260143  RH  033%=      5-min Rain = 0
KUM1 112154Z 18014KT 33/14 A3006 RMK A01 T03300143  RH  032%=      5-min Rain = 0
KUM1 112155Z 17016KT 33/15 A3006 RMK A01 T03340146  RH  032%=      5-min Rain = 0
KUM1 112156Z 16020KT 34/14 A3005 RMK A01 T03350142  RH  031%=      5-min Rain = 0
KUM1 112157Z 15019KT 33/14 A3005 RMK A01 T03290140  RH  032%=      5-min Rain = 0
KUM1 112158Z 16016KT 33/14 A3005 RMK A01 T03260142  RH  033%=      5-min Rain = 0
KUM1 112159Z 16016KT 33/14 A3005 RMK A01 T03250141  RH  033%=      5-min Rain = 0
KUM1 112200Z 15015KT 32/14 A3005 RMK A01 T03240143  RH  033%=      5-min Rain = 0
KUM1 112201Z 17020KT 33/14 A3005 RMK A01 T03270144  RH  033%=      5-min Rain = 0
KUM1 112202Z 18019KT 33/14 A3005 RMK A01 T03330143  RH  032%=      5-min Rain = 0
KUM1 112203Z 19020KT 34/14 A3005 RMK A01 T03350143  RH  031%=      5-min Rain = 0
KUM1 112204Z 16016G21KT 33/14 A3005 RMK A01 T03330142  RH  031%=      5-min Rain = 0
KUM1 112205Z 17022KT 33/14 A3005 RMK A01 T03310140  RH  032%=      5-min Rain = 0
KUM1 112206Z 18021KT 33/14 A3005 RMK A01 T03300139  RH  031%=      5-min Rain = 0
KUM1 112207Z 17020KT 33/14 A3005 RMK A01 T03300140  RH  032%=      5-min Rain = 0
KUM1 112208Z 18018KT 33/14 A3005 RMK A01 T03270138  RH  032%=      5-min Rain = 0
KUM1 112209Z 18019KT 33/14 A3006 RMK A01 T03250138  RH  032%=      5-min Rain = 0
KUM1 112210Z 18016KT 32/14 A3006 RMK A01 T03220136  RH  032%=      5-min Rain = 0
KUM1 112211Z 18016KT 32/14 A3006 RMK A01 T03190136  RH  033%=      5-min Rain = 0
KUM1 112212Z 17017KT 32/14 A3006 RMK A01 T03180136  RH  033%=      5-min Rain = 0
KUM1 112213Z 18018KT 32/14 A3006 RMK A01 T03180135  RH  033%=      5-min Rain = 0
KUM1 112214Z 18013KT 32/14 A3006 RMK A01 T03170135  RH  033%=      5-min Rain = 0
KUM1 112215Z 18015KT 32/14 A3006 RMK A01 T03160136  RH  034%=      5-min Rain = 0
KUM1 112216Z 18017KT 32/14 A3005 RMK A01 T03160136  RH  034%=      5-min Rain = 0
KUM1 112217Z 17018KT 32/14 A3005 RMK A01 T03160135  RH  033%=      5-min Rain = 0
KUM1 112218Z 18017G24KT 32/14 A3005 RMK A01 T03150135  RH  034%=      5-min Rain = 0
KUM1 112219Z 17021KT 31/14 A3005 RMK A01 T03140135  RH  034%=      5-min Rain = 0
KUM1 112220Z 18021KT 32/14 A3005 RMK A01 T03150135  RH  033%=      5-min Rain = 0
KUM1 112221Z 18019KT 32/14 A3005 RMK A01 T03160136  RH  033%=      5-min Rain = 0
KUM1 112222Z 18018KT 32/14 A3005 RMK A01 T03180138  RH  033%=      5-min Rain = 0
KUM1 112223Z 18018KT 32/14 A3005 RMK A01 T03200137  RH  033%=      5-min Rain = 0
KUM1 112224Z 18016KT 32/14 A3005 RMK A01 T03200137  RH  033%=      5-min Rain = 0
KUM1 112225Z 16016KT 32/14 A3005 RMK A01 T03210141  RH  034%=      5-min Rain = 0
KUM1 112226Z 16017KT 32/14 A3005 RMK A01 T03220139  RH  033%=      5-min Rain = 0
KUM1 112227Z 17016KT 32/14 A3005 RMK A01 T03210139  RH  033%=      5-min Rain = 0
KUM1 112228Z 17013KT 32/14 A3005 RMK A01 T03240141  RH  033%=      5-min Rain = 0
KUM1 112229Z 18017KT 33/14 A3005 RMK A01 T03270140  RH  032%=      5-min Rain = 0
KUM1 112230Z 19017KT 33/14 A3005 RMK A01 T03270142  RH  033%=      5-min Rain = 0
KUM1 112231Z 18019KT 33/14 A3005 RMK A01 T03280143  RH  033%=      5-min Rain = 0
KUM1 112232Z 19017KT 33/14 A3005 RMK A01 T03270143  RH  033%=      5-min Rain = 0
KUM1 112233Z 17016KT 33/14 A3005 RMK A01 T03270144  RH  033%=      5-min Rain = 0
KUM1 112234Z 17017KT 33/14 A3005 RMK A01 T03270141  RH  032%=      5-min Rain = 0
KUM1 112235Z 18017KT 32/14 A3005 RMK A01 T03230137  RH  032%=      5-min Rain = 0
KUM1 112236Z 17014KT 32/14 A3005 RMK A01 T03200138  RH  033%=      5-min Rain = 0
KUM1 112237Z 17014KT 32/14 A3005 RMK A01 T03220140  RH  033%=      5-min Rain = 0
KUM1 112238Z 17016KT 33/14 A3005 RMK A01 T03260142  RH  033%=      5-min Rain = 0
KUM1 112239Z 17018KT 33/14 A3005 RMK A01 T03270139  RH  032%=      5-min Rain = 0
KUM1 112240Z 17019KT 33/14 A3005 RMK A01 T03270138  RH  032%=      5-min Rain = 0
KUM1 112241Z 17017KT 33/14 A3005 RMK A01 T03270138  RH  032%=      5-min Rain = 0
KUM1 112242Z 18016G21KT 33/14 A3005 RMK A01 T03270138  RH  032%=      5-min Rain = 0
KUM1 112243Z 18018KT 33/14 A3005 RMK A01 T03270140  RH  032%=      5-min Rain = 0
KUM1 112244Z 17017KT 33/14 A3005 RMK A01 T03260137  RH  032%=      5-min Rain = 0
KUM1 112245Z 18018KT 33/14 A3005 RMK A01 T03250139  RH  033%=      5-min Rain = 0
KUM1 112246Z 18017KT 33/14 A3005 RMK A01 T03280141  RH  032%=      5-min Rain = 0
KUM1 112247Z 17016KT 33/14 A3005 RMK A01 T03280141  RH  032%=      5-min Rain = 0
KUM1 112248Z 17018KT 33/14 A3005 RMK A01 T03270142  RH  033%=      5-min Rain = 0
KUM1 112249Z 17019KT 33/14 A3004 RMK A01 T03260141  RH  033%=      5-min Rain = 0
KUM1 112250Z 19016KT 33/14 A3004 RMK A01 T03260142  RH  033%=      5-min Rain = 0
KUM1 112251Z 18017KT 33/14 A3004 RMK A01 T03270141  RH  033%=      5-min Rain = 0
KUM1 112252Z 19020G25KT 33/14 A3004 RMK A01 T03290141  RH  032%=      5-min Rain = 0
KUM1 112253Z 18017KT 33/14 A3005 RMK A01 T03280141  RH  032%=      5-min Rain = 0
KUM1 112254Z 18015KT 33/14 A3005 RMK A01 T03280140  RH  032%=      5-min Rain = 0
KUM1 112255Z 17020KT 33/14 A3005 RMK A01 T03270140  RH  032%=      5-min Rain = 0
KUM1 112256Z 17019KT 33/14 A3005 RMK A01 T03280140  RH  032%=      5-min Rain = 0
KUM1 112257Z 17018G25KT 33/14 A3005 RMK A01 T03270140  RH  032%=      5-min Rain = 0
KUM1 112258Z 17017KT 33/14 A3005 RMK A01 T03260139  RH  032%=      5-min Rain = 0
KUM1 112259Z 16015KT 33/14 A3005 RMK A01 T03250141  RH  033%=      5-min Rain = 0
KUM1 112300Z 17018KT 33/14 A3005 RMK A01 T03270141  RH  032%=      5-min Rain = 0
KUM1 112301Z 18016G22KT 33/14 A3005 RMK A01 T03280141  RH  032%=      5-min Rain = 0
KUM1 112302Z 17020KT 33/14 A3005 RMK A01 T03300141  RH  032%=      5-min Rain = 0
KUM1 112303Z 17021KT 33/14 A3005 RMK A01 T03290139  RH  032%=      5-min Rain = 0
KUM1 112304Z 16018KT 33/14 A3005 RMK A01 T03280139  RH  032%=      5-min Rain = 0
KUM1 112305Z 16019KT 33/14 A3005 RMK A01 T03270140  RH  032%=      5-min Rain = 0
KUM1 112306Z 16019KT 33/14 A3005 RMK A01 T03260140  RH  032%=      5-min Rain = 0
KUM1 112307Z 17016KT 33/14 A3005 RMK A01 T03250141  RH  033%=      5-min Rain = 0
KUM1 112308Z 18017KT 33/14 A3005 RMK A01 T03260139  RH  032%=      5-min Rain = 0
KUM1 112309Z 18015KT 33/14 A3005 RMK A01 T03250139  RH  032%=      5-min Rain = 0
KUM1 112310Z 17015G20KT 33/14 A3005 RMK A01 T03250142  RH  033%=      5-min Rain = 0
KUM1 112311Z 17020KT 33/14 A3005 RMK A01 T03290139  RH  032%=      5-min Rain = 0
KUM1 112312Z 17021KT 33/14 A3005 RMK A01 T03290138  RH  032%=      5-min Rain = 0
KUM1 112313Z 17021KT 33/14 A3005 RMK A01 T03270137  RH  032%=      5-min Rain = 0
KUM1 112314Z 17020KT 33/14 A3005 RMK A01 T03260138  RH  032%=      5-min Rain = 0
KUM1 112315Z 17019KT 33/14 A3005 RMK A01 T03250137  RH  032%=      5-min Rain = 0
KUM1 112316Z 17018KT 32/14 A3005 RMK A01 T03240138  RH  032%=      5-min Rain = 0
KUM1 112317Z 17017KT 32/14 A3005 RMK A01 T03240137  RH  032%=      5-min Rain = 0
KUM1 112318Z 18018KT 32/14 A3005 RMK A01 T03240138  RH  032%=      5-min Rain = 0
KUM1 112319Z 18024KT 33/14 A3005 RMK A01 T03250137  RH  032%=      5-min Rain = 0
KUM1 112320Z 18018KT 32/14 A3005 RMK A01 T03240137  RH  032%=      5-min Rain = 0
KUM1 112321Z 17017KT 33/14 A3005 RMK A01 T03250138  RH  032%=      5-min Rain = 0
KUM1 112322Z 18020KT 33/14 A3005 RMK A01 T03260137  RH  032%=      5-min Rain = 0
KUM1 112323Z 18020KT 33/14 A3005 RMK A01 T03260136  RH  032%=      5-min Rain = 0
KUM1 112324Z 18019KT 32/14 A3005 RMK A01 T03240136  RH  032%=      5-min Rain = 0
KUM1 112325Z 17020KT 33/14 A3005 RMK A01 T03250135  RH  032%=      5-min Rain = 0
KUM1 112326Z 17020KT 33/14 A3005 RMK A01 T03250136  RH  032%=      5-min Rain = 0
KUM1 112327Z 18017KT 33/14 A3005 RMK A01 T03250137  RH  032%=      5-min Rain = 0
KUM1 112328Z 18017KT 33/14 A3005 RMK A01 T03250136  RH  032%=      5-min Rain = 0
KUM1 112329Z 18016KT 32/14 A3005 RMK A01 T03240136  RH  032%=      5-min Rain = 0
KUM1 112330Z 17015KT 32/14 A3005 RMK A01 T03240136  RH  032%=      5-min Rain = 0
KUM1 112331Z 17014KT 32/14 A3005 RMK A01 T03230136  RH  032%=      5-min Rain = 0
KUM1 112332Z 17017G24KT 32/14 A3005 RMK A01 T03230137  RH  032%=      5-min Rain = 0
KUM1 112333Z 18019KT 32/14 A3005 RMK A01 T03240136  RH  032%=      5-min Rain = 0
KUM1 112334Z 17018KT 32/14 A3005 RMK A01 T03210136  RH  032%=      5-min Rain = 0
KUM1 112335Z 17017KT 32/14 A3005 RMK A01 T03200135  RH  032%=      5-min Rain = 0
KUM1 112336Z 16016KT 32/14 A3005 RMK A01 T03190136  RH  033%=      5-min Rain = 0
KUM1 112337Z 18015G21KT 32/14 A3005 RMK A01 T03200136  RH  033%=      5-min Rain = 0
KUM1 112338Z 18020KT 32/14 A3005 RMK A01 T03210137  RH  033%=      5-min Rain = 0
KUM1 112339Z 18017KT 32/14 A3005 RMK A01 T03210138  RH  033%=      5-min Rain = 0
KUM1 112340Z 18017KT 32/14 A3005 RMK A01 T03220139  RH  033%=      5-min Rain = 0
KUM1 112341Z 18016KT 32/14 A3005 RMK A01 T03210137  RH  033%=      5-min Rain = 0
KUM1 112342Z 17016KT 32/14 A3005 RMK A01 T03210137  RH  033%=      5-min Rain = 0
KUM1 112343Z 17019G24KT 32/14 A3005 RMK A01 T03220137  RH  033%=      5-min Rain = 0
KUM1 112344Z 18017G22KT 32/13 A3005 RMK A01 T03210134  RH  032%=      5-min Rain = 0
KUM1 112345Z 17017KT 32/13 A3005 RMK A01 T03200133  RH  032%=      5-min Rain = 0
KUM1 112346Z 17014KT 32/13 A3005 RMK A01 T03180134  RH  033%=      5-min Rain = 0
KUM1 112347Z 18017KT 32/13 A3005 RMK A01 T03180134  RH  033%=      5-min Rain = 0
KUM1 112348Z 18015KT 32/13 A3005 RMK A01 T03170134  RH  033%=      5-min Rain = 0
KUM1 112349Z 18017KT 32/13 A3005 RMK A01 T03170134  RH  033%=      5-min Rain = 0
KUM1 112350Z 17013KT 32/13 A3005 RMK A01 T03160134  RH  033%=      5-min Rain = 0
KUM1 112351Z 18014KT 32/13 A3005 RMK A01 T03160134  RH  033%=      5-min Rain = 0
KUM1 112352Z 18016KT 32/13 A3005 RMK A01 T03160134  RH  033%=      5-min Rain = 0
KUM1 112353Z 17015KT 32/14 A3005 RMK A01 T03160135  RH  033%=      5-min Rain = 0
KUM1 112354Z 17018KT 32/14 A3005 RMK A01 T03160136  RH  033%=      5-min Rain = 0
KUM1 112355Z 18015KT 32/14 A3005 RMK A01 T03160136  RH  034%=      5-min Rain = 0
KUM1 112356Z 18015KT 32/14 A3005 RMK A01 T03150137  RH  034%=      5-min Rain = 0
KUM1 112357Z 18019KT 32/14 A3005 RMK A01 T03160136  RH  034%=      5-min Rain = 0
KUM1 112358Z 18017KT 32/14 A3005 RMK A01 T03160136  RH  034%=      5-min Rain = 0
KUM1 112359Z 18016KT 32/14 A3005 RMK A01 T03160136  RH  033%=      5-min Rain = 0
KUM1 120000Z 19016KT 32/14 A3005 RMK A01 T03150136  RH  034%=      5-min Rain = 0
KUM1 120001Z 19014KT 32/14 A3005 RMK A01 T03150136  RH  034%=      5-min Rain = 0
KUM1 120002Z 19016KT 32/14 A3005 RMK A01 T03150136  RH  034%=      5-min Rain = 0
KUM1 120003Z 19016KT 32/14 A3005 RMK A01 T03150136  RH  034%=      5-min Rain = 0
KUM1 120004Z 19014KT 32/14 A3005 RMK A01 T03150136  RH  034%=      5-min Rain = 0
KUM1 120005Z 19015KT 31/14 A3005 RMK A01 T03140136  RH  034%=      5-min Rain = 0
KUM1 120006Z 19016KT 31/14 A3005 RMK A01 T03140135  RH  034%=      5-min Rain = 0
KUM1 120007Z 18015KT 32/14 A3005 RMK A01 T03150136  RH  034%=      5-min Rain = 0
KUM1 120008Z 18018KT 32/14 A3005 RMK A01 T03150136  RH  034%=      5-min Rain = 0
KUM1 120009Z 16015KT 32/14 A3005 RMK A01 T03150135  RH  033%=      5-min Rain = 0
KUM1 120010Z 16018KT 32/14 A3005 RMK A01 T03150135  RH  033%=      5-min Rain = 0
KUM1 120011Z 17015G20KT 32/14 A3005 RMK A01 T03160136  RH  034%=      5-min Rain = 0
KUM1 120012Z 18016G22KT 32/14 A3005 RMK A01 T03160136  RH  033%=      5-min Rain = 0
KUM1 120013Z 18021KT 32/14 A3005 RMK A01 T03180136  RH  033%=      5-min Rain = 0
KUM1 120014Z 17017KT 32/14 A3005 RMK A01 T03180136  RH  033%=      5-min Rain = 0
KUM1 120015Z 17017KT 32/14 A3005 RMK A01 T03190137  RH  033%=      5-min Rain = 0
KUM1 120016Z 17019KT 32/14 A3005 RMK A01 T03190135  RH  033%=      5-min Rain = 0
KUM1 120017Z 17017KT 32/14 A3005 RMK A01 T03190136  RH  033%=      5-min Rain = 0
KUM1 120018Z 17019KT 32/14 A3005 RMK A01 T03190135  RH  033%=      5-min Rain = 0
KUM1 120019Z 17017KT 32/14 A3005 RMK A01 T03200135  RH  033%=      5-min Rain = 0
KUM1 120020Z 17020G26KT 32/14 A3005 RMK A01 T03200137  RH  033%=      5-min Rain = 0
KUM1 120021Z 16022KT 32/14 A3005 RMK A01 T03210135  RH  032%=      5-min Rain = 0
KUM1 120022Z 16019KT 32/14 A3005 RMK A01 T03200135  RH  033%=      5-min Rain = 0
KUM1 120023Z 17020KT 32/14 A3005 RMK A01 T03190136  RH  033%=      5-min Rain = 0
KUM1 120024Z 17018G23KT 32/14 A3005 RMK A01 T03200135  RH  032%=      5-min Rain = 0
KUM1 120025Z 17017KT 32/14 A3005 RMK A01 T03200137  RH  033%=      5-min Rain = 0
KUM1 120026Z 17020KT 32/14 A3005 RMK A01 T03210136  RH  033%=      5-min Rain = 0
KUM1 120027Z 17017KT 32/14 A3005 RMK A01 T03200135  RH  032%=      5-min Rain = 0
KUM1 120028Z 17019KT 32/14 A3005 RMK A01 T03190135  RH  033%=      5-min Rain = 0
KUM1 120029Z 17021KT 32/13 A3005 RMK A01 T03190134  RH  033%=      5-min Rain = 0
KUM1 120030Z 17019KT 32/14 A3005 RMK A01 T03180135  RH  033%=      5-min Rain = 0
KUM1 120031Z 17015KT 32/14 A3006 RMK A01 T03180136  RH  033%=      5-min Rain = 0
KUM1 120032Z 18015KT 32/14 A3006 RMK A01 T03180136  RH  033%=      5-min Rain = 0
KUM1 120033Z 18013KT 32/14 A3006 RMK A01 T03190136  RH  033%=      5-min Rain = 0
KUM1 120034Z 17017KT 32/14 A3006 RMK A01 T03210137  RH  033%=      5-min Rain = 0
KUM1 120035Z 17016KT 32/14 A3006 RMK A01 T03210137  RH  033%=      5-min Rain = 0
KUM1 120036Z 17017KT 32/14 A3006 RMK A01 T03200137  RH  033%=      5-min Rain = 0
KUM1 120037Z 17017KT 32/14 A3006 RMK A01 T03190136  RH  033%=      5-min Rain = 0
KUM1 120038Z 17015KT 32/14 A3006 RMK A01 T03190136  RH  033%=      5-min Rain = 0
KUM1 120039Z 18016KT 32/14 A3006 RMK A01 T03190136  RH  033%=      5-min Rain = 0
KUM1 120040Z 17017KT 32/14 A3006 RMK A01 T03190135  RH  033%=      5-min Rain = 0
KUM1 120041Z 16019KT 32/13 A3006 RMK A01 T03190134  RH  032%=      5-min Rain = 0
KUM1 120042Z 17019KT 32/13 A3006 RMK A01 T03190134  RH  032%=      5-min Rain = 0
KUM1 120043Z 17016G21KT 32/13 A3006 RMK A01 T03190134  RH  033%=      5-min Rain = 0
KUM1 120044Z 18019KT 32/13 A3006 RMK A01 T03190134  RH  032%=      5-min Rain = 0
KUM1 120045Z 17019KT 32/13 A3006 RMK A01 T03190134  RH  033%=      5-min Rain = 0
KUM1 120046Z 17017KT 32/13 A3006 RMK A01 T03180134  RH  033%=      5-min Rain = 0
KUM1 120047Z 17017KT 32/14 A3006 RMK A01 T03170135  RH  033%=      5-min Rain = 0
KUM1 120048Z 17017KT 32/14 A3006 RMK A01 T03180135  RH  033%=      5-min Rain = 0
KUM1 120049Z 16017KT 32/14 A3006 RMK A01 T03180135  RH  033%=      5-min Rain = 0
KUM1 120050Z 16015KT 32/14 A3006 RMK A01 T03180135  RH  033%=      5-min Rain = 0
KUM1 120051Z 16018KT 32/14 A3006 RMK A01 T03180135  RH  033%=      5-min Rain = 0
KUM1 120052Z 17015KT 32/14 A3006 RMK A01 T03180135  RH  033%=      5-min Rain = 0
KUM1 120053Z 17013KT 32/14 A3006 RMK A01 T03170135  RH  033%=      5-min Rain = 0
KUM1 120054Z 17014KT 32/14 A3006 RMK A01 T03170135  RH  033%=      5-min Rain = 0
KUM1 120055Z 16017KT 32/14 A3006 RMK A01 T03180135  RH  033%=      5-min Rain = 0
KUM1 120056Z 16016KT 32/13 A3006 RMK A01 T03180134  RH  033%=      5-min Rain = 0
KUM1 120057Z 16016KT 32/14 A3006 RMK A01 T03170135  RH  033%=      5-min Rain = 0
KUM1 120058Z 16016KT 32/14 A3006 RMK A01 T03160135  RH  033%=      5-min Rain = 0
KUM1 120059Z 16017G22KT 32/14 A3006 RMK A01 T03160135  RH  033%=      5-min Rain = 0
KUM1 120100Z 16020KT 32/14 A3006 RMK A01 T03160135  RH  033%=      5-min Rain = 0
KUM1 120101Z 16019KT 32/14 A3006 RMK A01 T03160135  RH  033%=      5-min Rain = 0
KUM1 120102Z 15017KT 32/14 A3006 RMK A01 T03150135  RH  033%=      5-min Rain = 0
KUM1 120103Z 15018KT 32/14 A3006 RMK A01 T03150135  RH  034%=      5-min Rain = 0
KUM1 120104Z 15018KT 31/14 A3006 RMK A01 T03140135  RH  034%=      5-min Rain = 0
KUM1 120105Z 15019KT 31/14 A3006 RMK A01 T03130135  RH  034%=      5-min Rain = 0
KUM1 120106Z 15019KT 31/14 A3006 RMK A01 T03130135  RH  034%=      5-min Rain = 0
KUM1 120107Z 15020KT 31/14 A3006 RMK A01 T03130135  RH  034%=      5-min Rain = 0
KUM1 120108Z 15018KT 31/13 A3006 RMK A01 T03120134  RH  034%=      5-min Rain = 0
KUM1 120109Z 15017KT 31/14 A3006 RMK A01 T03120135  RH  034%=      5-min Rain = 0
KUM1 120110Z 16015KT 31/14 A3006 RMK A01 T03120135  RH  034%=      5-min Rain = 0
KUM1 120111Z 17018G24KT 31/14 A3006 RMK A01 T03120135  RH  034%=      5-min Rain = 0
KUM1 120112Z 17020KT 31/14 A3006 RMK A01 T03120139  RH  035%=      5-min Rain = 0
KUM1 120113Z 19017KT 31/14 A3006 RMK A01 T03110141  RH  036%=      5-min Rain = 0
KUM1 120114Z 18015KT 31/14 A3006 RMK A01 T03100141  RH  036%=      5-min Rain = 0
KUM1 120115Z 19017KT 31/14 A3006 RMK A01 T03090141  RH  036%=      5-min Rain = 0
KUM1 120116Z 20017KT 31/14 A3006 RMK A01 T03080142  RH  036%=      5-min Rain = 0
KUM1 120117Z 20014KT 31/14 A3006 RMK A01 T03070142  RH  037%=      5-min Rain = 0
KUM1 120118Z 20014KT 31/14 A3006 RMK A01 T03050142  RH  037%=      5-min Rain = 0
KUM1 120119Z 19016KT 31/14 A3006 RMK A01 T03050143  RH  037%=      5-min Rain = 0
KUM1 120120Z 19016KT 30/14 A3006 RMK A01 T03040142  RH  037%=      5-min Rain = 0
KUM1 120121Z 19016KT 30/14 A3006 RMK A01 T03030142  RH  038%=      5-min Rain = 0
KUM1 120122Z 19018KT 30/14 A3006 RMK A01 T03020143  RH  038%=      5-min Rain = 0
KUM1 120123Z 19017KT 30/14 A3006 RMK A01 T03010143  RH  038%=      5-min Rain = 0
KUM1 120124Z 19016KT 30/14 A3006 RMK A01 T03000143  RH  038%=      5-min Rain = 0
KUM1 120125Z 19018KT 30/14 A3006 RMK A01 T02990143  RH  038%=      5-min Rain = 0
KUM1 120126Z 19017KT 30/14 A3006 RMK A01 T02980143  RH  039%=      5-min Rain = 0
KUM1 120127Z 19017KT 30/14 A3006 RMK A01 T02970143  RH  039%=      5-min Rain = 0
KUM1 120128Z 19016KT 30/14 A3007 RMK A01 T02970143  RH  039%=      5-min Rain = 0
KUM1 120129Z 19014KT 30/14 A3007 RMK A01 T02960143  RH  039%=      5-min Rain = 0
KUM1 120130Z 19014KT 30/14 A3007 RMK A01 T02960143  RH  039%=      5-min Rain = 0
KUM1 120131Z 19013KT 30/14 A3007 RMK A01 T02950143  RH  039%=      5-min Rain = 0
KUM1 120132Z 19015KT 30/14 A3007 RMK A01 T02950143  RH  039%=      5-min Rain = 0
KUM1 120133Z 19015KT 29/14 A3007 RMK A01 T02940143  RH  040%=      5-min Rain = 0
KUM1 120134Z 19013KT 29/14 A3007 RMK A01 T02930143  RH  040%=      5-min Rain = 0
KUM1 120135Z 19013KT 29/14 A3007 RMK A01 T02930143  RH  040%=      5-min Rain = 0
KUM1 120136Z 19015KT 29/14 A3007 RMK A01 T02920143  RH  040%=      5-min Rain = 0
KUM1 120137Z 19013KT 29/14 A3007 RMK A01 T02910143  RH  040%=      5-min Rain = 0
KUM1 120138Z 19013KT 29/14 A3007 RMK A01 T02910143  RH  040%=      5-min Rain = 0
KUM1 120139Z 19014KT 29/14 A3007 RMK A01 T02910143  RH  040%=      5-min Rain = 0
KUM1 120140Z 19014KT 29/14 A3007 RMK A01 T02910143  RH  040%=      5-min Rain = 0
KUM1 120141Z 19014KT 29/14 A3007 RMK A01 T02900143  RH  041%=      5-min Rain = 0
KUM1 120142Z 19014KT 29/14 A3007 RMK A01 T02900143  RH  041%=      5-min Rain = 0
KUM1 120143Z 20013KT 29/14 A3007 RMK A01 T02900143  RH  041%=      5-min Rain = 0
KUM1 120144Z 19012KT 29/14 A3007 RMK A01 T02900143  RH  041%=      5-min Rain = 0
KUM1 120145Z 19011KT 29/14 A3007 RMK A01 T02890143  RH  041%=      5-min Rain = 0
KUM1 120146Z 19010KT 29/14 A3008 RMK A01 T02890143  RH  041%=      5-min Rain = 0
KUM1 120147Z 19011KT 29/14 A3008 RMK A01 T02880143  RH  041%=      5-min Rain = 0
KUM1 120148Z 19011KT 29/14 A3008 RMK A01 T02870143  RH  041%=      5-min Rain = 0
KUM1 120149Z 19011KT 29/14 A3008 RMK A01 T02860142  RH  041%=      5-min Rain = 0
KUM1 120150Z 19009KT 29/14 A3008 RMK A01 T02860143  RH  041%=      5-min Rain = 0
KUM1 120151Z 19010KT 29/14 A3008 RMK A01 T02860143  RH  042%=      5-min Rain = 0
KUM1 120152Z 19009KT 29/14 A3008 RMK A01 T02850143  RH  042%=      5-min Rain = 0
KUM1 120153Z 19009KT 29/14 A3008 RMK A01 T02850143  RH  042%=      5-min Rain = 0
KUM1 120154Z 19009KT 28/14 A3008 RMK A01 T02840143  RH  042%=      5-min Rain = 0
KUM1 120155Z 19009KT 28/14 A3008 RMK A01 T02840143  RH  042%=      5-min Rain = 0
KUM1 120156Z 19008KT 28/14 A3008 RMK A01 T02840143  RH  042%=      5-min Rain = 0
KUM1 120157Z 19008KT 28/14 A3008 RMK A01 T02830143  RH  042%=      5-min Rain = 0
KUM1 120158Z 19009KT 28/14 A3008 RMK A01 T02830143  RH  042%=      5-min Rain = 0
KUM1 120159Z 19008KT 28/14 A3008 RMK A01 T02820143  RH  042%=      5-min Rain = 0
KUM1 120200Z 19008KT 28/14 A3008 RMK A01 T02820143  RH  043%=      5-min Rain = 0
KUM1 120201Z 19007KT 28/14 A3008 RMK A01 T02820143  RH  043%=      5-min Rain = 0
KUM1 120202Z 19008KT 28/14 A3008 RMK A01 T02820143  RH  043%=      5-min Rain = 0
KUM1 120203Z 18008KT 28/14 A3008 RMK A01 T02810142  RH  043%=      5-min Rain = 0
KUM1 120204Z 19008KT 28/14 A3008 RMK A01 T02810143  RH  043%=      5-min Rain = 0
KUM1 120205Z 18007KT 28/14 A3008 RMK A01 T02810143  RH  043%=      5-min Rain = 0
KUM1 120206Z 18008KT 28/14 A3008 RMK A01 T02810143  RH  043%=      5-min Rain = 0
KUM1 120207Z 19008KT 28/14 A3008 RMK A01 T02800143  RH  043%=      5-min Rain = 0
KUM1 120208Z 18008KT 28/14 A3008 RMK A01 T02800143  RH  043%=      5-min Rain = 0
KUM1 120209Z 18007KT 28/14 A3008 RMK A01 T02800143  RH  043%=      5-min Rain = 0
KUM1 120210Z 18008KT 28/14 A3008 RMK A01 T02790143  RH  043%=      5-min Rain = 0
KUM1 120211Z 18007KT 28/14 A3008 RMK A01 T02790143  RH  043%=      5-min Rain = 0
KUM1 120212Z 18008KT 28/14 A3008 RMK A01 T02790144  RH  044%=      5-min Rain = 0
KUM1 120213Z 18008KT 28/14 A3008 RMK A01 T02790144  RH  044%=      5-min Rain = 0
KUM1 120214Z 18008KT 28/14 A3008 RMK A01 T02790144  RH  044%=      5-min Rain = 0
KUM1 120215Z 18008KT 28/14 A3009 RMK A01 T02790144  RH  044%=      5-min Rain = 0
KUM1 120216Z 18008KT 28/14 A3008 RMK A01 T02790143  RH  043%=      5-min Rain = 0
KUM1 120217Z 18008KT 28/14 A3009 RMK A01 T02790143  RH  043%=      5-min Rain = 0
KUM1 120218Z 18008KT 28/14 A3009 RMK A01 T02790143  RH  043%=      5-min Rain = 0
KUM1 120219Z 18008KT 28/14 A3009 RMK A01 T02800143  RH  043%=      5-min Rain = 0
KUM1 120220Z 18008KT 28/14 A3009 RMK A01 T02800143  RH  043%=      5-min Rain = 0
KUM1 120221Z 18008KT 28/14 A3009 RMK A01 T02800143  RH  043%=      5-min Rain = 0
KUM1 120222Z 18008KT 28/14 A3009 RMK A01 T02800143  RH  043%=      5-min Rain = 0
KUM1 120223Z 18008KT 28/14 A3009 RMK A01 T02800143  RH  043%=      5-min Rain = 0
KUM1 120224Z 18007KT 28/14 A3009 RMK A01 T02800144  RH  043%=      5-min Rain = 0
KUM1 120225Z 18008KT 28/14 A3009 RMK A01 T02800144  RH  043%=      5-min Rain = 0
KUM1 120226Z 18008KT 28/14 A3009 RMK A01 T02800143  RH  043%=      5-min Rain = 0
KUM1 120227Z 18008KT 28/14 A3009 RMK A01 T02800143  RH  043%=      5-min Rain = 0
KUM1 120228Z 18008KT 28/14 A3009 RMK A01 T02800143  RH  043%=      5-min Rain = 0
KUM1 120229Z 18008KT 28/14 A3009 RMK A01 T02800144  RH  043%=      5-min Rain = 0
KUM1 120230Z 18007KT 28/14 A3009 RMK A01 T02800143  RH  043%=      5-min Rain = 0
KUM1 120231Z 18008KT 28/14 A3009 RMK A01 T02800143  RH  043%=      5-min Rain = 0
KUM1 120232Z 17008KT 28/14 A3009 RMK A01 T02800143  RH  043%=      5-min Rain = 0
KUM1 120233Z 18009KT 28/14 A3009 RMK A01 T02800143  RH  043%=      5-min Rain = 0
KUM1 120234Z 17008KT 28/14 A3009 RMK A01 T02800144  RH  043%=      5-min Rain = 0
KUM1 120235Z 17008KT 28/14 A3009 RMK A01 T02800144  RH  043%=      5-min Rain = 0
KUM1 120236Z 17007KT 28/14 A3009 RMK A01 T02800144  RH  043%=      5-min Rain = 0
KUM1 120237Z 17007KT 28/14 A3009 RMK A01 T02790144  RH  043%=      5-min Rain = 0
KUM1 120238Z 17007KT 28/14 A3009 RMK A01 T02790144  RH  044%=      5-min Rain = 0
KUM1 120239Z 17008KT 28/14 A3009 RMK A01 T02780144  RH  044%=      5-min Rain = 0
KUM1 120240Z 17007KT 28/14 A3009 RMK A01 T02780143  RH  044%=      5-min Rain = 0
KUM1 120241Z 17006KT 28/14 A3009 RMK A01 T02780143  RH  044%=      5-min Rain = 0
KUM1 120242Z 17006KT 28/14 A3009 RMK A01 T02770143  RH  044%=      5-min Rain = 0
KUM1 120243Z 17007KT 28/14 A3009 RMK A01 T02770143  RH  044%=      5-min Rain = 0
KUM1 120244Z 17007KT 28/14 A3009 RMK A01 T02770144  RH  044%=      5-min Rain = 0
KUM1 120245Z 17007KT 28/14 A3009 RMK A01 T02770144  RH  044%=      5-min Rain = 0
KUM1 120246Z 16007KT 28/14 A3009 RMK A01 T02770144  RH  044%=      5-min Rain = 0
KUM1 120247Z 16006KT 28/14 A3009 RMK A01 T02760144  RH  044%=      5-min Rain = 0
KUM1 120248Z 16006KT 28/14 A3009 RMK A01 T02760144  RH  044%=      5-min Rain = 0
KUM1 120249Z 16007KT 28/14 A3009 RMK A01 T02750144  RH  045%=      5-min Rain = 0
KUM1 120250Z 15007KT 27/15 A301 RMK A01 T02740145  RH  045%=      5-min Rain = 0
KUM1 120251Z 14007KT 27/15 A301 RMK A01 T02730145  RH  045%=      5-min Rain = 0
KUM1 120252Z 15007KT 27/14 A301 RMK A01 T02720144  RH  046%=      5-min Rain = 0
KUM1 120253Z 15006KT 27/14 A301 RMK A01 T02700144  RH  046%=      5-min Rain = 0
KUM1 120254Z 15007KT 27/14 A301 RMK A01 T02700144  RH  046%=      5-min Rain = 0
KUM1 120255Z 16007KT 27/14 A301 RMK A01 T02680144  RH  046%=      5-min Rain = 0
KUM1 120256Z 16007KT 27/14 A301 RMK A01 T02680144  RH  047%=      5-min Rain = 0
KUM1 120257Z 16008KT 27/14 A301 RMK A01 T02670144  RH  047%=      5-min Rain = 0
KUM1 120258Z 16008KT 27/15 A301 RMK A01 T02670145  RH  047%=      5-min Rain = 0
KUM1 120259Z 16008KT 27/14 A301 RMK A01 T02670144  RH  047%=      5-min Rain = 0
KUM1 120300Z 16009KT 27/14 A301 RMK A01 T02680144  RH  047%=      5-min Rain = 0
KUM1 120301Z 16008KT 27/14 A301 RMK A01 T02680144  RH  047%=      5-min Rain = 0
KUM1 120302Z 16008KT 27/14 A301 RMK A01 T02680144  RH  046%=      5-min Rain = 0
KUM1 120303Z 16008KT 27/14 A301 RMK A01 T02680144  RH  047%=      5-min Rain = 0
KUM1 120304Z 16008KT 27/14 A301 RMK A01 T02670144  RH  047%=      5-min Rain = 0
KUM1 120305Z 16008KT 27/14 A301 RMK A01 T02670144  RH  047%=      5-min Rain = 0
KUM1 120306Z 16008KT 27/14 A301 RMK A01 T02670144  RH  047%=      5-min Rain = 0
KUM1 120307Z 16009KT 27/14 A301 RMK A01 T02660144  RH  047%=      5-min Rain = 0
KUM1 120308Z 16008KT 27/14 A301 RMK A01 T02660144  RH  047%=      5-min Rain = 0
KUM1 120309Z 16008KT 27/14 A301 RMK A01 T02660144  RH  047%=      5-min Rain = 0
KUM1 120310Z 16009KT 27/14 A301 RMK A01 T02660144  RH  047%=      5-min Rain = 0
KUM1 120311Z 16009KT 27/14 A301 RMK A01 T02660144  RH  047%=      5-min Rain = 0
KUM1 120312Z 16008KT 27/14 A301 RMK A01 T02660144  RH  047%=      5-min Rain = 0
KUM1 120313Z 16008KT 27/14 A301 RMK A01 T02660144  RH  047%=      5-min Rain = 0
KUM1 120314Z 16008KT 27/14 A301 RMK A01 T02660144  RH  047%=      5-min Rain = 0
KUM1 120315Z 16009KT 27/15 A301 RMK A01 T02660145  RH  047%=      5-min Rain = 0
KUM1 120316Z 16010KT 27/14 A301 RMK A01 T02660144  RH  047%=      5-min Rain = 0
KUM1 120317Z 16009KT 27/14 A3011 RMK A01 T02670143  RH  047%=      5-min Rain = 0
KUM1 120318Z 16010KT 27/14 A3011 RMK A01 T02680143  RH  046%=      5-min Rain = 0
KUM1 120319Z 16009KT 27/14 A3011 RMK A01 T02680143  RH  046%=      5-min Rain = 0
KUM1 120320Z 16009KT 27/14 A3011 RMK A01 T02680143  RH  046%=      5-min Rain = 0
KUM1 120321Z 17010KT 27/14 A3011 RMK A01 T02680143  RH  046%=      5-min Rain = 0
KUM1 120322Z 16010KT 27/14 A3011 RMK A01 T02680143  RH  046%=      5-min Rain = 0
KUM1 120323Z 16009KT 27/14 A3011 RMK A01 T02680143  RH  046%=      5-min Rain = 0
KUM1 120324Z 16010KT 27/14 A3011 RMK A01 T02680143  RH  046%=      5-min Rain = 0
KUM1 120325Z 16009KT 27/14 A3011 RMK A01 T02680143  RH  046%=      5-min Rain = 0
KUM1 120326Z 15009KT 27/14 A3011 RMK A01 T02680143  RH  046%=      5-min Rain = 0
KUM1 120327Z 15010KT 27/14 A3011 RMK A01 T02670143  RH  046%=      5-min Rain = 0
KUM1 120328Z 16010KT 27/14 A3011 RMK A01 T02670143  RH  047%=      5-min Rain = 0
KUM1 120329Z 16011KT 27/14 A3011 RMK A01 T02660143  RH  047%=      5-min Rain = 0
KUM1 120330Z 16011KT 27/14 A3011 RMK A01 T02660143  RH  047%=      5-min Rain = 0
KUM1 120331Z 16010KT 27/14 A3011 RMK A01 T02670143  RH  047%=      5-min Rain = 0
KUM1 120332Z 16011KT 27/14 A3011 RMK A01 T02670143  RH  047%=      5-min Rain = 0
KUM1 120333Z 16010KT 27/14 A3011 RMK A01 T02660143  RH  047%=      5-min Rain = 0
KUM1 120334Z 16010KT 27/14 A3011 RMK A01 T02660143  RH  047%=      5-min Rain = 0
KUM1 120335Z 16009KT 27/14 A3011 RMK A01 T02650143  RH  047%=      5-min Rain = 0
KUM1 120336Z 16008KT 27/14 A3011 RMK A01 T02650143  RH  047%=      5-min Rain = 0
KUM1 120337Z 16009KT 26/14 A3011 RMK A01 T02640143  RH  047%=      5-min Rain = 0
KUM1 120338Z 16008KT 26/14 A3011 RMK A01 T02640143  RH  048%=      5-min Rain = 0
KUM1 120339Z 16008KT 26/14 A3011 RMK A01 T02630143  RH  048%=      5-min Rain = 0
KUM1 120340Z 16008KT 26/14 A3011 RMK A01 T02630143  RH  048%=      5-min Rain = 0
KUM1 120341Z 17008KT 26/14 A3012 RMK A01 T02630143  RH  048%=      5-min Rain = 0
KUM1 120342Z 17008KT 26/14 A3012 RMK A01 T02620143  RH  048%=      5-min Rain = 0
KUM1 120343Z 17008KT 26/14 A3012 RMK A01 T02610143  RH  048%=      5-min Rain = 0
KUM1 120344Z 17008KT 26/14 A3012 RMK A01 T02610143  RH  048%=      5-min Rain = 0
KUM1 120345Z 17008KT 26/14 A3012 RMK A01 T02610143  RH  048%=      5-min Rain = 0
KUM1 120346Z 18007KT 26/14 A3012 RMK A01 T02610143  RH  048%=      5-min Rain = 0
KUM1 120347Z 19007KT 26/14 A3012 RMK A01 T02610143  RH  048%=      5-min Rain = 0
KUM1 120348Z 20007KT 26/14 A3012 RMK A01 T02610143  RH  048%=      5-min Rain = 0
KUM1 120349Z 20007KT 26/14 A3012 RMK A01 T02610143  RH  048%=      5-min Rain = 0
KUM1 120350Z 20008KT 26/14 A3012 RMK A01 T02610143  RH  048%=      5-min Rain = 0
KUM1 120351Z 20008KT 26/14 A3012 RMK A01 T02610144  RH  048%=      5-min Rain = 0
KUM1 120352Z 20007KT 26/15 A3012 RMK A01 T02610145  RH  049%=      5-min Rain = 0
KUM1 120353Z 20008KT 26/15 A3012 RMK A01 T02610145  RH  049%=      5-min Rain = 0
KUM1 120354Z 19009KT 26/15 A3012 RMK A01 T02610146  RH  049%=      5-min Rain = 0
KUM1 120355Z 19010KT 26/15 A3012 RMK A01 T02610147  RH  049%=      5-min Rain = 0
KUM1 120356Z 18009KT 26/15 A3012 RMK A01 T02620147  RH  049%=      5-min Rain = 0
KUM1 120357Z 18010KT 26/15 A3012 RMK A01 T02620147  RH  049%=      5-min Rain = 0
KUM1 120358Z 18009KT 26/15 A3012 RMK A01 T02620147  RH  049%=      5-min Rain = 0
KUM1 120359Z 18010KT 26/15 A3012 RMK A01 T02620147  RH  049%=      5-min Rain = 0
KUM1 120400Z 17011KT 26/15 A3012 RMK A01 T02630147  RH  049%=      5-min Rain = 0
KUM1 120401Z 17009KT 26/15 A3012 RMK A01 T02630146  RH  049%=      5-min Rain = 0
KUM1 120402Z 17009KT 26/15 A3012 RMK A01 T02630147  RH  049%=      5-min Rain = 0
KUM1 120403Z 17009KT 26/15 A3013 RMK A01 T02630147  RH  049%=      5-min Rain = 0
KUM1 120404Z 17009KT 26/15 A3013 RMK A01 T02630147  RH  049%=      5-min Rain = 0
KUM1 120405Z 17009KT 26/15 A3013 RMK A01 T02620147  RH  049%=      5-min Rain = 0
KUM1 120406Z 17009KT 26/15 A3013 RMK A01 T02620147  RH  049%=      5-min Rain = 0
KUM1 120407Z 17009KT 26/15 A3013 RMK A01 T02620147  RH  049%=      5-min Rain = 0
KUM1 120408Z 17010KT 26/15 A3013 RMK A01 T02620147  RH  049%=      5-min Rain = 0
KUM1 120409Z 16008KT 26/15 A3013 RMK A01 T02620147  RH  049%=      5-min Rain = 0
KUM1 120410Z 17008KT 26/15 A3012 RMK A01 T02620147  RH  049%=      5-min Rain = 0
KUM1 120411Z 17008KT 26/15 A3012 RMK A01 T02620147  RH  049%=      5-min Rain = 0
KUM1 120412Z 18009KT 26/15 A3012 RMK A01 T02610147  RH  049%=      5-min Rain = 0
KUM1 120413Z 18009KT 26/15 A3012 RMK A01 T02610147  RH  049%=      5-min Rain = 0
KUM1 120414Z 17012KT 26/15 A3012 RMK A01 T02610147  RH  049%=      5-min Rain = 0
KUM1 120415Z 19011KT 26/15 A3012 RMK A01 T02620146  RH  049%=      5-min Rain = 0
KUM1 120416Z 20010KT 26/15 A3013 RMK A01 T02620146  RH  049%=      5-min Rain = 0
KUM1 120417Z 21012KT 26/15 A3013 RMK A01 T02620147  RH  049%=      5-min Rain = 0
KUM1 120418Z 22012KT 26/15 A3013 RMK A01 T02600147  RH  050%=      5-min Rain = 0
KUM1 120419Z 21011KT 26/15 A3013 RMK A01 T02590148  RH  050%=      5-min Rain = 0
KUM1 120420Z 22013KT 26/15 A3013 RMK A01 T02590148  RH  050%=      5-min Rain = 0
KUM1 120421Z 22015KT 26/15 A3013 RMK A01 T02590148  RH  050%=      5-min Rain = 0
KUM1 120422Z 21016KT 26/15 A3013 RMK A01 T02590148  RH  050%=      5-min Rain = 0
KUM1 120423Z 19012G17KT 26/15 A3013 RMK A01 T02610147  RH  049%=      5-min Rain = 0
KUM1 120424Z 20011KT 26/15 A3012 RMK A01 T02630147  RH  049%=      5-min Rain = 0
KUM1 120425Z 19011KT 26/15 A3012 RMK A01 T02630147  RH  049%=      5-min Rain = 0
KUM1 120426Z 19012KT 26/15 A3012 RMK A01 T02630147  RH  049%=      5-min Rain = 0
KUM1 120427Z 19013KT 26/15 A3013 RMK A01 T02630146  RH  048%=      5-min Rain = 0
KUM1 120428Z 20011KT 26/15 A3013 RMK A01 T02630146  RH  048%=      5-min Rain = 0
KUM1 120429Z 21011KT 26/15 A3013 RMK A01 T02630146  RH  048%=      5-min Rain = 0
KUM1 120430Z 21011KT 26/15 A3013 RMK A01 T02630147  RH  049%=      5-min Rain = 0
KUM1 120431Z 23013KT 26/15 A3013 RMK A01 T02620148  RH  050%=      5-min Rain = 0
KUM1 120432Z 22011KT 26/15 A3013 RMK A01 T02600150  RH  051%=      5-min Rain = 0
KUM1 120433Z 22012KT 26/15 A3013 RMK A01 T02590150  RH  051%=      5-min Rain = 0
KUM1 120434Z 22014KT 26/15 A3013 RMK A01 T02580150  RH  051%=      5-min Rain = 0
KUM1 120435Z 22013KT 26/15 A3013 RMK A01 T02580151  RH  052%=      5-min Rain = 0
KUM1 120436Z 22012KT 26/15 A3013 RMK A01 T02570151  RH  052%=      5-min Rain = 0
KUM1 120437Z 21011KT 26/15 A3013 RMK A01 T02570151  RH  052%=      5-min Rain = 0
KUM1 120438Z 21011KT 26/15 A3013 RMK A01 T02560152  RH  052%=      5-min Rain = 0
KUM1 120439Z 21011KT 26/15 A3013 RMK A01 T02550151  RH  052%=      5-min Rain = 0
KUM1 120440Z 21011KT 26/15 A3013 RMK A01 T02550151  RH  053%=      5-min Rain = 0
KUM1 120441Z 21012KT 26/15 A3013 RMK A01 T02550151  RH  052%=      5-min Rain = 0
KUM1 120442Z 20012KT 26/15 A3013 RMK A01 T02560150  RH  052%=      5-min Rain = 0
KUM1 120443Z 21011KT 26/15 A3013 RMK A01 T02570150  RH  052%=      5-min Rain = 0
KUM1 120444Z 22009KT 26/15 A3013 RMK A01 T02570149  RH  051%=      5-min Rain = 0
KUM1 120445Z 23009KT 26/15 A3013 RMK A01 T02570150  RH  052%=      5-min Rain = 0
KUM1 120446Z 22012KT 26/15 A3013 RMK A01 T02550151  RH  052%=      5-min Rain = 0
KUM1 120447Z 22010KT 25/15 A3013 RMK A01 T02540151  RH  053%=      5-min Rain = 0
KUM1 120448Z 22011KT 25/15 A3013 RMK A01 T02540151  RH  053%=      5-min Rain = 0
KUM1 120449Z 22011KT 25/15 A3013 RMK A01 T02530152  RH  053%=      5-min Rain = 0
KUM1 120450Z 22010KT 25/15 A3013 RMK A01 T02520152  RH  054%=      5-min Rain = 0
KUM1 120451Z 22010KT 25/15 A3013 RMK A01 T02510152  RH  054%=      5-min Rain = 0
KUM1 120452Z 22009KT 25/15 A3013 RMK A01 T02500152  RH  054%=      5-min Rain = 0
KUM1 120453Z 22009KT 25/15 A3013 RMK A01 T02490152  RH  055%=      5-min Rain = 0
KUM1 120454Z 22009KT 25/15 A3013 RMK A01 T02480152  RH  055%=      5-min Rain = 0
KUM1 120455Z 22008KT 25/15 A3014 RMK A01 T02480152  RH  055%=      5-min Rain = 0
KUM1 120456Z 22009KT 25/15 A3014 RMK A01 T02470152  RH  055%=      5-min Rain = 0
KUM1 120457Z 22010KT 25/15 A3014 RMK A01 T02470152  RH  056%=      5-min Rain = 0
KUM1 120458Z 22008KT 25/15 A3014 RMK A01 T02460153  RH  056%=      5-min Rain = 0
KUM1 120459Z 22008KT 25/15 A3014 RMK A01 T02460153  RH  056%=      5-min Rain = 0
KUM1 120500Z 23009KT 25/15 A3014 RMK A01 T02450153  RH  056%=      5-min Rain = 0

Page generated in 0.0459 seconds.